Time,TemperatureF,DewpointF,PressureIn,WindDirection,WindDirectionDegrees,WindSpeedMPH,WindSpeedGustMPH,Humidity,HourlyPrecipIn,Conditions,Clouds,dailyrainin,SoftwareType,DateUTC
2013-06-02 00:13:00,75.0,68.8,29.81,WSW,247,1.0,7.0,81,0.00,,---,0.00,VWS V14.01,2013-06-02 04:13:00,
2013-06-02 00:19:00,74.9,68.7,29.81,SSW,208,0.0,7.0,81,0.00,,---,0.00,VWS V14.01,2013-06-02 04:19:00,
2013-06-02 00:23:00,75.0,68.8,29.81,WSW,240,3.0,7.0,81,0.00,,---,0.00,VWS V14.01,2013-06-02 04:23:00,
2013-06-02 00:24:00,75.0,68.8,29.81,SW,218,4.0,7.0,81,0.00,,---,0.00,VWS V14.01,2013-06-02 04:24:00,
2013-06-02 00:25:00,75.0,68.8,29.81,SSW,213,0.0,7.0,81,0.00,,---,0.00,VWS V14.01,2013-06-02 04:25:00,
2013-06-02 00:27:00,75.0,68.8,29.81,WSW,242,1.0,7.0,81,0.00,,---,0.00,VWS V14.01,2013-06-02 04:27:00,
2013-06-02 00:30:00,75.0,68.8,29.81,West,265,1.0,3.0,81,0.00,,---,0.00,VWS V14.01,2013-06-02 04:30:00,
2013-06-02 00:31:00,75.1,68.9,29.81,WSW,240,1.0,3.0,81,0.00,,---,0.00,VWS V14.01,2013-06-02 04:31:00,
2013-06-02 00:33:00,75.1,68.9,29.81,SW,217,3.0,3.0,81,0.00,,---,0.00,VWS V14.01,2013-06-02 04:33:00,
2013-06-02 00:35:00,75.0,68.8,29.80,SW,214,3.0,5.0,81,0.00,,---,0.00,VWS V14.01,2013-06-02 04:35:00,
2013-06-02 00:36:00,74.9,68.7,29.80,SSE,161,3.0,5.0,81,0.00,,---,0.00,VWS V14.01,2013-06-02 04:36:00,
2013-06-02 00:37:00,74.8,68.6,29.80,South,174,3.0,5.0,81,0.00,,---,0.00,VWS V14.01,2013-06-02 04:37:00,
2013-06-02 00:38:00,74.6,68.8,29.80,SSE,164,4.0,5.0,82,0.00,,---,0.00,VWS V14.01,2013-06-02 04:38:00,
2013-06-02 00:42:00,74.0,68.5,29.80,SSE,154,3.0,7.0,83,0.00,,---,0.00,VWS V14.01,2013-06-02 04:42:00,
2013-06-02 00:43:00,74.0,68.5,29.80,South,186,1.0,7.0,83,0.00,,---,0.00,VWS V14.01,2013-06-02 04:43:00,
2013-06-02 00:47:00,74.0,68.5,29.80,ESE,106,1.0,7.0,83,0.00,,---,0.00,VWS V14.01,2013-06-02 04:47:00,
2013-06-02 00:48:00,74.0,68.5,29.80,WSW,238,1.0,7.0,83,0.00,,---,0.00,VWS V14.01,2013-06-02 04:48:00,
2013-06-02 00:49:00,74.0,68.5,29.80,WSW,240,3.0,7.0,83,0.00,,---,0.00,VWS V14.01,2013-06-02 04:49:00,
2013-06-02 00:53:00,74.2,68.7,29.80,WSW,257,2.0,7.0,83,0.00,,---,0.00,VWS V14.01,2013-06-02 04:53:00,
2013-06-02 00:54:00,74.3,68.8,29.80,WNW,297,2.0,7.0,83,0.00,,---,0.00,VWS V14.01,2013-06-02 04:54:00,
2013-06-02 00:58:00,74.6,68.8,29.80,SW,229,1.0,7.0,82,0.00,,---,0.00,VWS V14.01,2013-06-02 04:58:00,
2013-06-02 00:59:00,74.7,68.8,29.80,SW,235,3.0,3.0,82,0.00,,---,0.00,VWS V14.01,2013-06-02 04:59:00,
2013-06-02 01:01:00,74.8,68.9,29.80,SSW,205,2.0,3.0,82,0.00,,---,0.00,VWS V14.01,2013-06-02 05:01:00,
2013-06-02 01:05:00,74.6,68.8,29.80,NW,309,2.0,3.0,82,0.00,,---,0.00,VWS V14.01,2013-06-02 05:05:00,
2013-06-02 01:06:00,74.6,68.8,29.80,WNW,297,4.0,7.0,82,0.00,,---,0.00,VWS V14.01,2013-06-02 05:06:00,
2013-06-02 01:07:00,74.8,68.9,29.79,West,278,3.0,7.0,82,0.00,,---,0.00,VWS V14.01,2013-06-02 05:07:00,
2013-06-02 01:11:00,75.2,69.0,29.80,WSW,240,4.0,7.0,81,0.00,,---,0.00,VWS V14.01,2013-06-02 05:11:00,
2013-06-02 01:12:00,75.4,69.2,29.80,WSW,257,4.0,7.0,81,0.00,,---,0.00,VWS V14.01,2013-06-02 05:12:00,
2013-06-02 01:16:00,75.5,68.9,29.80,WNW,283,0.0,7.0,80,0.00,,---,0.00,VWS V14.01,2013-06-02 05:16:00,
2013-06-02 01:17:00,75.5,68.9,29.80,WNW,283,0.0,7.0,80,0.00,,---,0.00,VWS V14.01,2013-06-02 05:17:00,
2013-06-02 01:18:00,75.5,68.9,29.80,West,277,2.0,7.0,80,0.00,,---,0.00,VWS V14.01,2013-06-02 05:18:00,
2013-06-02 01:22:00,75.5,68.9,29.80,SSW,206,1.0,7.0,80,0.00,,---,0.00,VWS V14.01,2013-06-02 05:22:00,
2013-06-02 01:23:00,75.4,68.8,29.80,WSW,245,2.0,7.0,80,0.00,,---,0.00,VWS V14.01,2013-06-02 05:23:00,
2013-06-02 01:24:00,75.4,68.8,29.80,West,276,1.0,7.0,80,0.00,,---,0.00,VWS V14.01,2013-06-02 05:24:00,
2013-06-02 01:27:00,75.3,69.1,29.80,WSW,248,2.0,7.0,81,0.00,,---,0.00,VWS V14.01,2013-06-02 05:27:00,
2013-06-02 01:28:00,75.3,69.1,29.80,WSW,247,4.0,7.0,81,0.00,,---,0.00,VWS V14.01,2013-06-02 05:28:00,
2013-06-02 01:29:00,75.3,69.1,29.80,West,259,4.0,4.0,81,0.00,,---,0.00,VWS V14.01,2013-06-02 05:29:00,
2013-06-02 01:31:00,75.3,69.1,29.80,SW,235,3.0,4.0,81,0.00,,---,0.00,VWS V14.01,2013-06-02 05:31:00,
2013-06-02 01:32:00,75.2,69.0,29.80,SW,231,2.0,4.0,81,0.00,,---,0.00,VWS V14.01,2013-06-02 05:32:00,
2013-06-02 01:33:00,75.2,69.0,29.80,WSW,250,0.0,4.0,81,0.00,,---,0.00,VWS V14.01,2013-06-02 05:33:00,
2013-06-02 01:34:00,75.2,69.0,29.80,SSE,156,1.0,4.0,81,0.00,,---,0.00,VWS V14.01,2013-06-02 05:34:00,
2013-06-02 01:35:00,75.2,69.0,29.80,SSW,198,3.0,4.0,81,0.00,,---,0.00,VWS V14.01,2013-06-02 05:35:00,
2013-06-02 01:37:00,75.1,68.9,29.80,WSW,253,3.0,4.0,81,0.00,,---,0.00,VWS V14.01,2013-06-02 05:37:00,
2013-06-02 01:39:00,74.9,68.7,29.80,SW,229,1.0,4.0,81,0.00,,---,0.00,VWS V14.01,2013-06-02 05:39:00,
2013-06-02 01:40:00,74.9,68.7,29.80,WSW,250,2.0,4.0,81,0.00,,---,0.00,VWS V14.01,2013-06-02 05:40:00,
2013-06-02 01:42:00,74.8,68.6,29.79,SW,232,7.0,7.0,81,0.00,,---,0.00,VWS V14.01,2013-06-02 05:42:00,
2013-06-02 01:43:00,74.8,68.6,29.79,SW,221,2.0,7.0,81,0.00,,---,0.00,VWS V14.01,2013-06-02 05:43:00,
2013-06-02 01:45:00,75.1,68.9,29.79,WSW,240,4.0,7.0,81,0.00,,---,0.00,VWS V14.01,2013-06-02 05:45:00,
2013-06-02 01:48:00,75.7,69.1,29.79,WSW,240,4.0,9.0,80,0.00,,---,0.00,VWS V14.01,2013-06-02 05:48:00,
2013-06-02 01:51:00,76.0,69.0,29.79,East,99,2.0,9.0,79,0.00,,---,0.00,VWS V14.01,2013-06-02 05:51:00,
2013-06-02 01:54:00,76.0,68.7,29.79,SSW,205,4.0,9.0,78,0.00,,---,0.00,VWS V14.01,2013-06-02 05:54:00,
2013-06-02 01:56:00,76.3,68.9,29.79,South,191,2.0,9.0,78,0.00,,---,0.00,VWS V14.01,2013-06-02 05:56:00,
2013-06-02 01:58:00,76.5,69.1,29.79,WSW,257,1.0,9.0,78,0.00,,---,0.00,VWS V14.01,2013-06-02 05:58:00,
2013-06-02 01:59:00,76.5,68.8,29.79,SSW,207,1.0,2.0,77,0.00,,---,0.00,VWS V14.01,2013-06-02 05:59:00,
2013-06-02 02:00:00,76.6,68.9,29.79,West,263,1.0,2.0,77,0.00,,---,0.00,VWS V14.01,2013-06-02 06:00:00,
2013-06-02 02:02:00,76.6,68.9,29.79,West,271,0.0,2.0,77,0.00,,---,0.00,VWS V14.01,2013-06-02 06:02:00,
2013-06-02 02:03:00,76.6,68.9,29.79,West,281,0.0,2.0,77,0.00,,---,0.00,VWS V14.01,2013-06-02 06:03:00,
2013-06-02 02:05:00,76.6,68.9,29.79,North,350,2.0,3.0,77,0.00,,---,0.00,VWS V14.01,2013-06-02 06:05:00,
2013-06-02 02:06:00,76.5,69.1,29.79,NNW,336,2.0,3.0,78,0.00,,---,0.00,VWS V14.01,2013-06-02 06:06:00,
2013-06-02 02:07:00,76.4,69.0,29.79,WNW,291,0.0,5.0,78,0.00,,---,0.00,VWS V14.01,2013-06-02 06:07:00,
2013-06-02 02:08:00,76.2,68.8,29.79,WSW,257,1.0,5.0,78,0.00,,---,0.00,VWS V14.01,2013-06-02 06:08:00,
2013-06-02 02:09:00,76.1,68.8,29.79,NNW,348,2.0,5.0,78,0.00,,---,0.00,VWS V14.01,2013-06-02 06:09:00,
2013-06-02 02:11:00,76.0,69.0,29.79,North,355,1.0,5.0,79,0.00,,---,0.00,VWS V14.01,2013-06-02 06:11:00,
2013-06-02 02:12:00,75.8,68.8,29.79,NW,319,3.0,5.0,79,0.00,,---,0.00,VWS V14.01,2013-06-02 06:12:00,
2013-06-02 02:14:00,75.6,68.6,29.79,North,353,3.0,5.0,79,0.00,,---,0.00,VWS V14.01,2013-06-02 06:14:00,
2013-06-02 02:16:00,75.4,68.8,29.79,NW,304,1.0,5.0,80,0.00,,---,0.00,VWS V14.01,2013-06-02 06:16:00,
2013-06-02 02:17:00,75.3,68.7,29.79,NNE,16,2.0,5.0,80,0.00,,---,0.00,VWS V14.01,2013-06-02 06:17:00,
2013-06-02 02:18:00,75.3,68.7,29.79,North,354,2.0,5.0,80,0.00,,---,0.00,VWS V14.01,2013-06-02 06:18:00,
2013-06-02 02:19:00,75.2,68.6,29.79,North,4,1.0,5.0,80,0.00,,---,0.00,VWS V14.01,2013-06-02 06:19:00,
2013-06-02 02:21:00,75.1,68.9,29.79,NNE,25,0.0,5.0,81,0.00,,---,0.00,VWS V14.01,2013-06-02 06:21:00,
2013-06-02 02:22:00,75.0,68.8,29.79,NNE,25,0.0,5.0,81,0.00,,---,0.00,VWS V14.01,2013-06-02 06:22:00,
2013-06-02 02:24:00,74.7,68.5,29.79,NNE,25,1.0,5.0,81,0.00,,---,0.00,VWS V14.01,2013-06-02 06:24:00,
2013-06-02 02:26:00,74.3,68.4,29.79,NNE,25,0.0,5.0,82,0.00,,---,0.00,VWS V14.01,2013-06-02 06:26:00,
2013-06-02 02:27:00,74.2,68.4,29.79,NNE,26,1.0,5.0,82,0.00,,---,0.00,VWS V14.01,2013-06-02 06:27:00,
2013-06-02 02:29:00,74.0,68.5,29.79,NNE,26,0.0,1.0,83,0.00,,---,0.00,VWS V14.01,2013-06-02 06:29:00,
2013-06-02 02:30:00,73.7,68.2,29.79,North,356,1.0,1.0,83,0.00,,---,0.00,VWS V14.01,2013-06-02 06:30:00,
2013-06-02 02:32:00,73.5,68.0,29.79,NNW,342,2.0,3.0,83,0.00,,---,0.00,VWS V14.01,2013-06-02 06:32:00,
2013-06-02 02:34:00,73.3,68.2,29.79,North,350,0.0,3.0,84,0.00,,---,0.00,VWS V14.01,2013-06-02 06:34:00,
2013-06-02 02:35:00,73.1,68.0,29.79,North,349,2.0,3.0,84,0.00,,---,0.00,VWS V14.01,2013-06-02 06:35:00,
2013-06-02 02:37:00,72.9,68.1,29.79,North,8,0.0,3.0,85,0.00,,---,0.00,VWS V14.01,2013-06-02 06:37:00,
2013-06-02 02:38:00,72.9,68.1,29.79,North,349,1.0,3.0,85,0.00,,---,0.00,VWS V14.01,2013-06-02 06:38:00,
2013-06-02 02:39:00,72.8,68.0,29.79,North,350,2.0,3.0,85,0.00,,---,0.00,VWS V14.01,2013-06-02 06:39:00,
2013-06-02 02:40:00,72.7,67.9,29.79,North,352,2.0,3.0,85,0.00,,---,0.00,VWS V14.01,2013-06-02 06:40:00,
2013-06-02 02:41:00,72.7,68.3,29.79,North,349,0.0,3.0,86,0.00,,---,0.00,VWS V14.01,2013-06-02 06:41:00,
2013-06-02 02:43:00,72.5,68.1,29.79,North,349,0.0,3.0,86,0.00,,---,0.00,VWS V14.01,2013-06-02 06:43:00,
2013-06-02 02:44:00,72.5,68.1,29.79,North,350,0.0,3.0,86,0.00,,---,0.00,VWS V14.01,2013-06-02 06:44:00,
2013-06-02 02:45:00,72.4,68.0,29.79,North,350,0.0,3.0,86,0.00,,---,0.00,VWS V14.01,2013-06-02 06:45:00,
2013-06-02 02:47:00,72.4,68.0,29.78,North,350,0.0,3.0,86,0.00,,---,0.00,VWS V14.01,2013-06-02 06:47:00,
2013-06-02 02:48:00,72.3,68.2,29.78,NNW,328,2.0,3.0,87,0.00,,---,0.00,VWS V14.01,2013-06-02 06:48:00,
2013-06-02 02:49:00,72.2,68.1,29.79,NNW,328,1.0,3.0,87,0.00,,---,0.00,VWS V14.01,2013-06-02 06:49:00,
2013-06-02 02:50:00,72.2,68.1,29.78,North,354,2.0,3.0,87,0.00,,---,0.00,VWS V14.01,2013-06-02 06:50:00,
2013-06-02 02:52:00,72.1,68.0,29.78,NNW,343,1.0,3.0,87,0.00,,---,0.00,VWS V14.01,2013-06-02 06:52:00,
2013-06-02 02:53:00,72.0,68.3,29.78,NNW,329,1.0,3.0,88,0.00,,---,0.00,VWS V14.01,2013-06-02 06:53:00,
2013-06-02 02:54:00,72.0,68.3,29.78,NNW,328,1.0,3.0,88,0.00,,---,0.00,VWS V14.01,2013-06-02 06:54:00,
2013-06-02 02:55:00,72.0,68.3,29.79,NNW,333,1.0,3.0,88,0.00,,---,0.00,VWS V14.01,2013-06-02 06:55:00,
2013-06-02 02:57:00,72.0,68.3,29.78,NNW,333,2.0,3.0,88,0.00,,---,0.00,VWS V14.01,2013-06-02 06:57:00,
2013-06-02 02:58:00,72.0,68.3,29.78,North,358,2.0,2.0,88,0.00,,---,0.00,VWS V14.01,2013-06-02 06:58:00,
2013-06-02 02:59:00,72.0,68.3,29.78,North,8,0.0,2.0,88,0.00,,---,0.00,VWS V14.01,2013-06-02 06:59:00,
2013-06-02 03:01:00,72.0,68.3,29.78,North,8,0.0,2.0,88,0.00,,---,0.00,VWS V14.01,2013-06-02 07:01:00,
2013-06-02 03:03:00,72.0,68.3,29.78,North,4,0.0,2.0,88,0.00,,---,0.00,VWS V14.01,2013-06-02 07:03:00,
2013-06-02 03:04:00,72.0,68.3,29.78,NNW,341,1.0,2.0,88,0.00,,---,0.00,VWS V14.01,2013-06-02 07:04:00,
2013-06-02 03:05:00,71.9,68.2,29.78,NNW,340,1.0,2.0,88,0.00,,---,0.00,VWS V14.01,2013-06-02 07:05:00,
2013-06-02 03:07:00,71.9,68.2,29.78,NNW,340,1.0,2.0,88,0.00,,---,0.00,VWS V14.01,2013-06-02 07:07:00,
2013-06-02 03:08:00,71.8,68.1,29.78,North,352,2.0,2.0,88,0.00,,---,0.00,VWS V14.01,2013-06-02 07:08:00,
2013-06-02 03:10:00,71.7,68.0,29.78,North,350,2.0,3.0,88,0.00,,---,0.00,VWS V14.01,2013-06-02 07:10:00,
2013-06-02 03:12:00,71.7,68.0,29.78,North,354,2.0,3.0,88,0.00,,---,0.00,VWS V14.01,2013-06-02 07:12:00,
2013-06-02 03:14:00,71.7,68.0,29.78,NNW,343,2.0,3.0,88,0.00,,---,0.00,VWS V14.01,2013-06-02 07:14:00,
2013-06-02 03:15:00,71.7,68.0,29.79,NNW,343,1.0,3.0,88,0.00,,---,0.00,VWS V14.01,2013-06-02 07:15:00,
2013-06-02 03:16:00,71.6,67.9,29.79,NNW,343,1.0,3.0,88,0.00,,---,0.00,VWS V14.01,2013-06-02 07:16:00,
2013-06-02 03:18:00,71.6,67.9,29.79,NNW,343,1.0,3.0,88,0.00,,---,0.00,VWS V14.01,2013-06-02 07:18:00,
2013-06-02 03:20:00,71.6,67.9,29.79,NNW,343,0.0,3.0,88,0.00,,---,0.00,VWS V14.01,2013-06-02 07:20:00,
2013-06-02 03:21:00,71.6,67.9,29.79,NNW,342,0.0,3.0,88,0.00,,---,0.00,VWS V14.01,2013-06-02 07:21:00,
2013-06-02 03:22:00,71.6,67.9,29.79,NNW,342,0.0,3.0,88,0.00,,---,0.00,VWS V14.01,2013-06-02 07:22:00,
2013-06-02 03:23:00,71.6,67.9,29.78,NNW,343,0.0,3.0,88,0.00,,---,0.00,VWS V14.01,2013-06-02 07:23:00,
2013-06-02 03:24:00,71.6,67.9,29.78,NNW,343,0.0,3.0,88,0.00,,---,0.00,VWS V14.01,2013-06-02 07:24:00,
2013-06-02 03:26:00,71.5,67.8,29.78,NNW,343,0.0,3.0,88,0.00,,---,0.00,VWS V14.01,2013-06-02 07:26:00,
2013-06-02 03:27:00,71.5,67.8,29.78,NNW,343,0.0,3.0,88,0.00,,---,0.00,VWS V14.01,2013-06-02 07:27:00,
2013-06-02 03:28:00,71.5,67.8,29.78,NNW,343,0.0,3.0,88,0.00,,---,0.00,VWS V14.01,2013-06-02 07:28:00,
2013-06-02 03:29:00,71.4,67.7,29.78,NNW,343,0.0,0.0,88,0.00,,---,0.00,VWS V14.01,2013-06-02 07:29:00,
2013-06-02 03:31:00,71.2,67.5,29.79,NNW,343,0.0,0.0,88,0.00,,---,0.00,VWS V14.01,2013-06-02 07:31:00,
2013-06-02 03:32:00,71.2,67.5,29.79,NNW,343,0.0,0.0,88,0.00,,---,0.00,VWS V14.01,2013-06-02 07:32:00,
2013-06-02 03:33:00,71.1,67.4,29.79,NNW,343,0.0,0.0,88,0.00,,---,0.00,VWS V14.01,2013-06-02 07:33:00,
2013-06-02 03:34:00,71.0,67.6,29.79,NNW,343,0.0,0.0,89,0.00,,---,0.00,VWS V14.01,2013-06-02 07:34:00,
2013-06-02 03:36:00,70.9,67.5,29.79,NNW,343,0.0,0.0,89,0.00,,---,0.00,VWS V14.01,2013-06-02 07:36:00,
2013-06-02 03:37:00,70.9,67.5,29.79,NNW,343,0.0,0.0,89,0.00,,---,0.00,VWS V14.01,2013-06-02 07:37:00,
2013-06-02 03:39:00,70.7,67.3,29.79,NNW,343,0.0,0.0,89,0.00,,---,0.00,VWS V14.01,2013-06-02 07:39:00,
2013-06-02 03:40:00,70.7,67.3,29.79,NNW,343,0.0,0.0,89,0.00,,---,0.00,VWS V14.01,2013-06-02 07:40:00,
2013-06-02 03:42:00,70.6,67.5,29.79,NNW,343,0.0,0.0,90,0.00,,---,0.00,VWS V14.01,2013-06-02 07:42:00,
2013-06-02 03:44:00,70.5,67.4,29.78,NNW,343,0.0,0.0,90,0.00,,---,0.00,VWS V14.01,2013-06-02 07:44:00,
2013-06-02 03:45:00,70.5,67.4,29.78,NNW,343,0.0,0.0,90,0.00,,---,0.00,VWS V14.01,2013-06-02 07:45:00,
2013-06-02 03:47:00,70.4,67.3,29.78,NNW,343,0.0,0.0,90,0.00,,---,0.00,VWS V14.01,2013-06-02 07:47:00,
2013-06-02 03:48:00,70.3,67.2,29.78,NNW,343,0.0,0.0,90,0.00,,---,0.00,VWS V14.01,2013-06-02 07:48:00,
2013-06-02 03:50:00,70.2,67.1,29.78,NNW,343,0.0,0.0,90,0.00,,---,0.00,VWS V14.01,2013-06-02 07:50:00,
2013-06-02 03:52:00,70.2,67.1,29.78,NNW,343,0.0,0.0,90,0.00,,---,0.00,VWS V14.01,2013-06-02 07:52:00,
2013-06-02 03:53:00,70.1,67.4,29.78,NNW,343,0.0,0.0,91,0.00,,---,0.00,VWS V14.01,2013-06-02 07:53:00,
2013-06-02 03:54:00,70.1,67.4,29.78,NNW,343,0.0,0.0,91,0.00,,---,0.00,VWS V14.01,2013-06-02 07:54:00,
2013-06-02 03:56:00,70.1,67.4,29.78,NNW,343,0.0,0.0,91,0.00,,---,0.00,VWS V14.01,2013-06-02 07:56:00,
2013-06-02 03:57:00,70.0,67.3,29.78,NNW,342,0.0,0.0,91,0.00,,---,0.00,VWS V14.01,2013-06-02 07:57:00,
2013-06-02 03:59:00,70.0,67.3,29.78,NNW,343,0.0,0.0,91,0.00,,---,0.00,VWS V14.01,2013-06-02 07:59:00,
2013-06-02 04:00:00,70.0,67.3,29.78,NNW,343,0.0,0.0,91,0.00,,---,0.00,VWS V14.01,2013-06-02 08:00:00,
2013-06-02 04:01:00,70.0,67.3,29.78,NNW,343,0.0,0.0,91,0.00,,---,0.00,VWS V14.01,2013-06-02 08:01:00,
2013-06-02 04:03:00,70.0,67.6,29.78,NNW,343,0.0,0.0,92,0.00,,---,0.00,VWS V14.01,2013-06-02 08:03:00,
2013-06-02 04:04:00,70.0,67.6,29.78,NNW,342,0.0,0.0,92,0.00,,---,0.00,VWS V14.01,2013-06-02 08:04:00,
2013-06-02 04:05:00,70.0,67.6,29.78,NNW,343,0.0,0.0,92,0.00,,---,0.00,VWS V14.01,2013-06-02 08:05:00,
2013-06-02 04:06:00,70.0,67.6,29.78,NNW,343,0.0,0.0,92,0.00,,---,0.00,VWS V14.01,2013-06-02 08:06:00,
2013-06-02 04:09:00,70.0,67.6,29.78,NNW,343,0.0,0.0,92,0.00,,---,0.00,VWS V14.01,2013-06-02 08:09:00,
2013-06-02 04:10:00,70.1,67.7,29.78,NNW,337,0.0,0.0,92,0.00,,---,0.00,VWS V14.01,2013-06-02 08:10:00,
2013-06-02 04:12:00,70.1,67.7,29.78,West,277,0.0,0.0,92,0.00,,---,0.00,VWS V14.01,2013-06-02 08:12:00,
2013-06-02 04:13:00,70.2,67.8,29.78,West,279,0.0,0.0,92,0.00,,---,0.00,VWS V14.01,2013-06-02 08:13:00,
2013-06-02 04:14:00,70.2,67.8,29.78,SW,214,0.0,0.0,92,0.00,,---,0.00,VWS V14.01,2013-06-02 08:14:00,
2013-06-02 04:15:00,70.3,67.9,29.78,West,268,0.0,0.0,92,0.00,,---,0.00,VWS V14.01,2013-06-02 08:15:00,
2013-06-02 04:16:00,70.4,68.0,29.78,West,269,0.0,0.0,92,0.00,,---,0.00,VWS V14.01,2013-06-02 08:16:00,
2013-06-02 04:17:00,70.4,68.0,29.78,West,269,0.0,0.0,92,0.00,,---,0.00,VWS V14.01,2013-06-02 08:17:00,
2013-06-02 04:18:00,70.4,68.0,29.78,SSW,212,0.0,0.0,92,0.00,,---,0.00,VWS V14.01,2013-06-02 08:18:00,
2013-06-02 04:19:00,70.5,67.8,29.78,SW,224,0.0,0.0,91,0.00,,---,0.00,VWS V14.01,2013-06-02 08:19:00,
2013-06-02 04:21:00,70.4,67.7,29.78,SW,225,0.0,0.0,91,0.00,,---,0.00,VWS V14.01,2013-06-02 08:21:00,
2013-06-02 04:22:00,70.4,67.7,29.78,WSW,238,0.0,0.0,91,0.00,,---,0.00,VWS V14.01,2013-06-02 08:22:00,
2013-06-02 04:23:00,70.4,68.0,29.78,West,265,0.0,0.0,92,0.00,,---,0.00,VWS V14.01,2013-06-02 08:23:00,
2013-06-02 04:25:00,70.4,68.0,29.78,West,276,0.0,0.0,92,0.00,,---,0.00,VWS V14.01,2013-06-02 08:25:00,
2013-06-02 04:26:00,70.4,68.0,29.78,West,276,0.0,0.0,92,0.00,,---,0.00,VWS V14.01,2013-06-02 08:26:00,
2013-06-02 04:27:00,70.4,68.0,29.78,West,276,0.0,0.0,92,0.00,,---,0.00,VWS V14.01,2013-06-02 08:27:00,
2013-06-02 04:28:00,70.4,67.7,29.78,West,276,0.0,0.0,91,0.00,,---,0.00,VWS V14.01,2013-06-02 08:28:00,
2013-06-02 04:32:00,70.3,67.6,29.78,NE,56,0.0,0.0,91,0.00,,---,0.00,VWS V14.01,2013-06-02 08:32:00,
2013-06-02 04:33:00,70.2,67.4,29.78,NE,56,0.0,0.0,91,0.00,,---,0.00,VWS V14.01,2013-06-02 08:33:00,
2013-06-02 04:37:00,69.9,67.5,29.78,East,80,0.0,0.0,92,0.00,,---,0.00,VWS V14.01,2013-06-02 08:37:00,
2013-06-02 04:38:00,69.8,67.4,29.78,East,81,0.0,0.0,92,0.00,,---,0.00,VWS V14.01,2013-06-02 08:38:00,
2013-06-02 04:39:00,69.7,67.3,29.78,East,80,0.0,0.0,92,0.00,,---,0.00,VWS V14.01,2013-06-02 08:39:00,
2013-06-02 04:43:00,69.4,67.0,29.78,East,81,0.0,0.0,92,0.00,,---,0.00,VWS V14.01,2013-06-02 08:43:00,
2013-06-02 04:44:00,69.4,67.0,29.78,East,81,0.0,0.0,92,0.00,,---,0.00,VWS V14.01,2013-06-02 08:44:00,
2013-06-02 04:49:00,69.2,67.1,29.78,East,79,0.0,0.0,93,0.00,,---,0.00,VWS V14.01,2013-06-02 08:49:00,
2013-06-02 04:50:00,69.1,67.0,29.78,East,79,0.0,0.0,93,0.00,,---,0.00,VWS V14.01,2013-06-02 08:50:00,
2013-06-02 04:51:00,69.1,67.0,29.78,East,79,0.0,0.0,93,0.00,,---,0.00,VWS V14.01,2013-06-02 08:51:00,
2013-06-02 04:54:00,69.1,67.0,29.78,East,79,0.0,0.0,93,0.00,,---,0.00,VWS V14.01,2013-06-02 08:54:00,
2013-06-02 04:55:00,69.1,67.0,29.78,East,79,0.0,0.0,93,0.00,,---,0.00,VWS V14.01,2013-06-02 08:55:00,
2013-06-02 04:56:00,69.1,67.0,29.78,East,79,0.0,0.0,93,0.00,,---,0.00,VWS V14.01,2013-06-02 08:56:00,
2013-06-02 04:59:00,69.0,66.9,29.78,East,79,0.0,0.0,93,0.00,,---,0.00,VWS V14.01,2013-06-02 08:59:00,
2013-06-02 05:00:00,69.0,66.9,29.78,East,79,0.0,0.0,93,0.00,,---,0.00,VWS V14.01,2013-06-02 09:00:00,
2013-06-02 05:01:00,69.0,66.9,29.78,East,79,0.0,0.0,93,0.00,,---,0.00,VWS V14.01,2013-06-02 09:01:00,
2013-06-02 05:04:00,68.9,66.8,29.78,East,79,0.0,0.0,93,0.00,,---,0.00,VWS V14.01,2013-06-02 09:04:00,
2013-06-02 05:05:00,68.9,66.8,29.78,East,79,0.0,0.0,93,0.00,,---,0.00,VWS V14.01,2013-06-02 09:05:00,
2013-06-02 05:06:00,68.8,66.7,29.78,East,79,0.0,0.0,93,0.00,,---,0.00,VWS V14.01,2013-06-02 09:06:00,
2013-06-02 05:07:00,68.8,66.7,29.78,East,79,0.0,0.0,93,0.00,,---,0.00,VWS V14.01,2013-06-02 09:07:00,
2013-06-02 05:09:00,68.7,66.6,29.78,East,79,0.0,0.0,93,0.00,,---,0.00,VWS V14.01,2013-06-02 09:09:00,
2013-06-02 05:10:00,68.6,66.5,29.78,ENE,77,0.0,0.0,93,0.00,,---,0.00,VWS V14.01,2013-06-02 09:10:00,
2013-06-02 05:11:00,68.6,66.5,29.78,ENE,77,0.0,0.0,93,0.00,,---,0.00,VWS V14.01,2013-06-02 09:11:00,
2013-06-02 05:12:00,68.6,66.5,29.78,ENE,77,0.0,0.0,93,0.00,,---,0.00,VWS V14.01,2013-06-02 09:12:00,
2013-06-02 05:13:00,68.6,66.5,29.78,ENE,78,0.0,0.0,93,0.00,,---,0.00,VWS V14.01,2013-06-02 09:13:00,
2013-06-02 05:15:00,68.5,66.4,29.78,ENE,77,0.0,0.0,93,0.00,,---,0.00,VWS V14.01,2013-06-02 09:15:00,
2013-06-02 05:16:00,68.5,66.4,29.78,ENE,77,0.0,0.0,93,0.00,,---,0.00,VWS V14.01,2013-06-02 09:16:00,
2013-06-02 05:17:00,68.5,66.4,29.78,ENE,77,0.0,0.0,93,0.00,,---,0.00,VWS V14.01,2013-06-02 09:17:00,
2013-06-02 05:18:00,68.4,66.3,29.78,ENE,77,0.0,0.0,93,0.00,,---,0.00,VWS V14.01,2013-06-02 09:18:00,
2013-06-02 05:20:00,68.4,66.3,29.78,ENE,77,0.0,0.0,93,0.00,,---,0.00,VWS V14.01,2013-06-02 09:20:00,
2013-06-02 05:21:00,68.4,66.3,29.78,ENE,77,0.0,0.0,93,0.00,,---,0.00,VWS V14.01,2013-06-02 09:21:00,
2013-06-02 05:23:00,68.3,66.2,29.78,ENE,78,0.0,0.0,93,0.00,,---,0.00,VWS V14.01,2013-06-02 09:23:00,
2013-06-02 05:24:00,68.3,66.2,29.78,ENE,77,0.0,0.0,93,0.00,,---,0.00,VWS V14.01,2013-06-02 09:24:00,
2013-06-02 05:27:00,68.3,66.2,29.78,ENE,77,0.0,0.0,93,0.00,,---,0.00,VWS V14.01,2013-06-02 09:27:00,
2013-06-02 05:28:00,68.2,66.1,29.78,ENE,77,0.0,0.0,93,0.00,,---,0.00,VWS V14.01,2013-06-02 09:28:00,
2013-06-02 05:29:00,68.2,66.1,29.78,ENE,78,0.0,0.0,93,0.00,,---,0.00,VWS V14.01,2013-06-02 09:29:00,
2013-06-02 05:32:00,68.2,66.4,29.78,North,6,0.0,0.0,94,0.00,,---,0.00,VWS V14.01,2013-06-02 09:32:00,
2013-06-02 05:34:00,68.2,66.4,29.78,North,6,0.0,0.0,94,0.00,,---,0.00,VWS V14.01,2013-06-02 09:34:00,
2013-06-02 05:36:00,68.2,66.4,29.78,North,6,0.0,0.0,94,0.00,,---,0.00,VWS V14.01,2013-06-02 09:36:00,
2013-06-02 05:38:00,68.3,66.5,29.78,North,5,0.0,0.0,94,0.00,,---,0.00,VWS V14.01,2013-06-02 09:38:00,
2013-06-02 05:39:00,68.3,66.5,29.78,North,5,0.0,0.0,94,0.00,,---,0.00,VWS V14.01,2013-06-02 09:39:00,
2013-06-02 05:41:00,68.3,66.5,29.78,North,4,0.0,0.0,94,0.00,,---,0.00,VWS V14.01,2013-06-02 09:41:00,
2013-06-02 05:42:00,68.2,66.4,29.78,North,1,0.0,0.0,94,0.00,,---,0.00,VWS V14.01,2013-06-02 09:42:00,
2013-06-02 05:43:00,68.3,66.5,29.78,North,352,0.0,0.0,94,0.00,,---,0.00,VWS V14.01,2013-06-02 09:43:00,
2013-06-02 05:45:00,68.3,66.5,29.78,North,352,0.0,0.0,94,0.00,,---,0.00,VWS V14.01,2013-06-02 09:45:00,
2013-06-02 05:46:00,68.3,66.5,29.78,North,351,0.0,0.0,94,0.00,,---,0.00,VWS V14.01,2013-06-02 09:46:00,
2013-06-02 05:47:00,68.4,66.9,29.78,North,352,0.0,0.0,95,0.00,,---,0.00,VWS V14.01,2013-06-02 09:47:00,
2013-06-02 05:49:00,68.4,66.6,29.78,North,352,0.0,0.0,94,0.00,,---,0.00,VWS V14.01,2013-06-02 09:49:00,
2013-06-02 05:50:00,68.3,66.5,29.78,North,352,0.0,0.0,94,0.00,,---,0.00,VWS V14.01,2013-06-02 09:50:00,
2013-06-02 05:52:00,68.4,66.6,29.78,North,352,0.0,0.0,94,0.00,,---,0.00,VWS V14.01,2013-06-02 09:52:00,
2013-06-02 05:54:00,68.4,66.6,29.78,North,352,0.0,0.0,94,0.00,,---,0.00,VWS V14.01,2013-06-02 09:54:00,
2013-06-02 05:55:00,68.4,66.6,29.78,North,352,0.0,0.0,94,0.00,,---,0.00,VWS V14.01,2013-06-02 09:55:00,
2013-06-02 05:56:00,68.4,66.6,29.78,North,352,0.0,0.0,94,0.00,,---,0.00,VWS V14.01,2013-06-02 09:56:00,
2013-06-02 05:57:00,68.4,66.6,29.78,North,352,0.0,0.0,94,0.00,,---,0.00,VWS V14.01,2013-06-02 09:57:00,
2013-06-02 05:58:00,68.4,66.6,29.78,North,352,0.0,0.0,94,0.00,,---,0.00,VWS V14.01,2013-06-02 09:58:00,
2013-06-02 05:59:00,68.4,66.6,29.78,North,352,0.0,0.0,94,0.00,,---,0.00,VWS V14.01,2013-06-02 09:59:00,
2013-06-02 06:00:00,68.4,66.6,29.78,North,352,0.0,0.0,94,0.00,,---,0.00,VWS V14.01,2013-06-02 10:00:00,
2013-06-02 06:01:00,68.4,66.6,29.78,North,352,0.0,0.0,94,0.00,,---,0.00,VWS V14.01,2013-06-02 10:01:00,
2013-06-02 06:03:00,68.4,66.6,29.78,North,352,0.0,0.0,94,0.00,,---,0.00,VWS V14.01,2013-06-02 10:03:00,
2013-06-02 06:04:00,68.5,66.7,29.78,North,352,0.0,0.0,94,0.00,,---,0.00,VWS V14.01,2013-06-02 10:04:00,
2013-06-02 06:06:00,68.5,66.7,29.78,North,352,0.0,0.0,94,0.00,,---,0.00,VWS V14.01,2013-06-02 10:06:00,
2013-06-02 06:07:00,68.5,66.7,29.78,North,351,0.0,0.0,94,0.00,,---,0.00,VWS V14.01,2013-06-02 10:07:00,
2013-06-02 06:08:00,68.5,66.7,29.78,North,349,0.0,0.0,94,0.00,,---,0.00,VWS V14.01,2013-06-02 10:08:00,
2013-06-02 06:09:00,68.5,66.7,29.78,North,352,0.0,0.0,94,0.00,,---,0.00,VWS V14.01,2013-06-02 10:09:00,
2013-06-02 06:11:00,68.6,66.8,29.78,North,349,0.0,0.0,94,0.00,,---,0.00,VWS V14.01,2013-06-02 10:11:00,
2013-06-02 06:12:00,68.6,66.8,29.78,North,349,0.0,0.0,94,0.00,,---,0.00,VWS V14.01,2013-06-02 10:12:00,
2013-06-02 06:13:00,68.6,66.8,29.78,North,352,0.0,0.0,94,0.00,,---,0.00,VWS V14.01,2013-06-02 10:13:00,
2013-06-02 06:14:00,68.6,66.8,29.78,North,352,0.0,0.0,94,0.00,,---,0.00,VWS V14.01,2013-06-02 10:14:00,
2013-06-02 06:17:00,68.7,66.9,29.78,North,352,0.0,0.0,94,0.00,,---,0.00,VWS V14.01,2013-06-02 10:17:00,
2013-06-02 06:18:00,68.8,67.0,29.78,North,352,0.0,0.0,94,0.00,,---,0.00,VWS V14.01,2013-06-02 10:18:00,
2013-06-02 06:19:00,68.9,67.4,29.78,North,352,0.0,0.0,95,0.00,,---,0.00,VWS V14.01,2013-06-02 10:19:00,
2013-06-02 06:20:00,68.9,67.1,29.78,North,352,0.0,0.0,94,0.00,,---,0.00,VWS V14.01,2013-06-02 10:20:00,
2013-06-02 06:22:00,69.0,67.2,29.78,North,351,0.0,0.0,94,0.00,,---,0.00,VWS V14.01,2013-06-02 10:22:00,
2013-06-02 06:23:00,69.0,67.2,29.78,North,352,0.0,0.0,94,0.00,,---,0.00,VWS V14.01,2013-06-02 10:23:00,
2013-06-02 06:24:00,69.1,67.3,29.78,North,352,0.0,0.0,94,0.00,,---,0.00,VWS V14.01,2013-06-02 10:24:00,
2013-06-02 06:25:00,69.2,67.4,29.78,North,352,0.0,0.0,94,0.00,,---,0.00,VWS V14.01,2013-06-02 10:25:00,
2013-06-02 06:26:00,69.2,67.4,29.78,North,349,0.0,0.0,94,0.00,,---,0.00,VWS V14.01,2013-06-02 10:26:00,
2013-06-02 06:27:00,69.3,67.5,29.78,North,349,0.0,0.0,94,0.00,,---,0.00,VWS V14.01,2013-06-02 10:27:00,
2013-06-02 06:28:00,69.3,67.5,29.78,North,350,0.0,0.0,94,0.00,,---,0.00,VWS V14.01,2013-06-02 10:28:00,
2013-06-02 06:31:00,69.6,67.8,29.78,North,349,0.0,0.0,94,0.00,,---,0.00,VWS V14.01,2013-06-02 10:31:00,
2013-06-02 06:32:00,69.7,67.9,29.78,North,350,0.0,0.0,94,0.00,,---,0.00,VWS V14.01,2013-06-02 10:32:00,
2013-06-02 06:33:00,69.8,68.0,29.78,North,350,0.0,0.0,94,0.00,,---,0.00,VWS V14.01,2013-06-02 10:33:00,
2013-06-02 06:36:00,70.1,68.0,29.78,North,350,0.0,0.0,93,0.00,,---,0.00,VWS V14.01,2013-06-02 10:36:00,
2013-06-02 06:38:00,70.3,68.2,29.78,North,350,0.0,0.0,93,0.00,,---,0.00,VWS V14.01,2013-06-02 10:38:00,
2013-06-02 06:39:00,70.3,68.2,29.78,North,350,0.0,0.0,93,0.00,,---,0.00,VWS V14.01,2013-06-02 10:39:00,
2013-06-02 06:42:00,70.5,68.1,29.78,North,350,0.0,0.0,92,0.00,,---,0.00,VWS V14.01,2013-06-02 10:42:00,
2013-06-02 06:43:00,70.6,68.2,29.78,North,349,0.0,0.0,92,0.00,,---,0.00,VWS V14.01,2013-06-02 10:43:00,
2013-06-02 06:45:00,70.7,68.3,29.78,North,350,0.0,0.0,92,0.00,,---,0.00,VWS V14.01,2013-06-02 10:45:00,
2013-06-02 06:47:00,70.9,68.2,29.78,North,352,0.0,0.0,91,0.00,,---,0.00,VWS V14.01,2013-06-02 10:47:00,
2013-06-02 06:48:00,71.0,68.2,29.78,North,352,0.0,0.0,91,0.00,,---,0.00,VWS V14.01,2013-06-02 10:48:00,
2013-06-02 06:49:00,71.0,68.2,29.78,North,352,0.0,0.0,91,0.00,,---,0.00,VWS V14.01,2013-06-02 10:49:00,
2013-06-02 06:50:00,71.1,68.3,29.78,North,352,0.0,0.0,91,0.00,,---,0.00,VWS V14.01,2013-06-02 10:50:00,
2013-06-02 06:52:00,71.2,68.1,29.78,NE,39,0.0,0.0,90,0.00,,---,0.00,VWS V14.01,2013-06-02 10:52:00,
2013-06-02 06:54:00,71.3,68.2,29.78,NE,39,0.0,0.0,90,0.00,,---,0.00,VWS V14.01,2013-06-02 10:54:00,
2013-06-02 06:55:00,71.3,67.9,29.78,NE,39,0.0,0.0,89,0.00,,---,0.00,VWS V14.01,2013-06-02 10:55:00,
2013-06-02 06:57:00,71.4,68.0,29.78,NE,39,0.0,0.0,89,0.00,,---,0.00,VWS V14.01,2013-06-02 10:57:00,
2013-06-02 07:00:00,71.5,68.1,29.78,NE,37,0.0,0.0,89,0.00,,---,0.00,VWS V14.01,2013-06-02 11:00:00,
2013-06-02 07:01:00,71.5,68.1,29.78,North,7,0.0,0.0,89,0.00,,---,0.00,VWS V14.01,2013-06-02 11:01:00,
2013-06-02 07:03:00,71.5,67.8,29.78,SSE,160,1.0,3.0,88,0.00,,---,0.00,VWS V14.01,2013-06-02 11:03:00,
2013-06-02 07:05:00,71.6,67.9,29.78,ESE,122,1.0,3.0,88,0.00,,---,0.00,VWS V14.01,2013-06-02 11:05:00,
2013-06-02 07:06:00,71.6,67.9,29.78,SW,225,2.0,3.0,88,0.00,,---,0.00,VWS V14.01,2013-06-02 11:06:00,
2013-06-02 07:07:00,71.6,67.9,29.78,South,173,2.0,3.0,88,0.00,,---,0.00,VWS V14.01,2013-06-02 11:07:00,
2013-06-02 07:09:00,71.7,68.0,29.79,SSW,211,1.0,3.0,88,0.00,,---,0.00,VWS V14.01,2013-06-02 11:09:00,
2013-06-02 07:10:00,71.8,68.1,29.78,SW,217,0.0,3.0,88,0.00,,---,0.00,VWS V14.01,2013-06-02 11:10:00,
2013-06-02 07:11:00,71.8,68.1,29.78,SSW,200,0.0,3.0,88,0.00,,---,0.00,VWS V14.01,2013-06-02 11:11:00,
2013-06-02 07:13:00,71.8,68.1,29.78,SSW,202,2.0,3.0,88,0.00,,---,0.00,VWS V14.01,2013-06-02 11:13:00,
2013-06-02 07:14:00,71.8,68.1,29.78,SE,129,1.0,3.0,88,0.00,,---,0.00,VWS V14.01,2013-06-02 11:14:00,
2013-06-02 07:16:00,71.9,67.8,29.78,SSE,156,1.0,4.0,87,0.00,,---,0.00,VWS V14.01,2013-06-02 11:16:00,
2013-06-02 07:17:00,71.9,67.8,29.78,South,170,1.0,4.0,87,0.00,,---,0.00,VWS V14.01,2013-06-02 11:17:00,
2013-06-02 07:18:00,71.9,67.8,29.78,SSW,197,1.0,4.0,87,0.00,,---,0.00,VWS V14.01,2013-06-02 11:18:00,
2013-06-02 07:19:00,71.9,67.8,29.78,SW,218,2.0,4.0,87,0.00,,---,0.00,VWS V14.01,2013-06-02 11:19:00,
2013-06-02 07:22:00,71.9,67.8,29.78,SW,222,1.0,4.0,87,0.00,,---,0.00,VWS V14.01,2013-06-02 11:22:00,
2013-06-02 07:23:00,71.9,67.8,29.78,SSE,167,1.0,4.0,87,0.00,,---,0.00,VWS V14.01,2013-06-02 11:23:00,
2013-06-02 07:24:00,71.9,67.8,29.78,SSE,160,0.0,4.0,87,0.00,,---,0.00,VWS V14.01,2013-06-02 11:24:00,
2013-06-02 07:25:00,71.9,67.8,29.78,SSE,160,0.0,4.0,87,0.00,,---,0.00,VWS V14.01,2013-06-02 11:25:00,
2013-06-02 07:27:00,71.9,67.8,29.78,SSW,212,1.0,4.0,87,0.00,,---,0.00,VWS V14.01,2013-06-02 11:27:00,
2013-06-02 07:28:00,71.9,67.8,29.78,SSE,160,2.0,2.0,87,0.00,,---,0.00,VWS V14.01,2013-06-02 11:28:00,
2013-06-02 07:30:00,72.0,67.9,29.78,ESE,115,3.0,3.0,87,0.00,,---,0.00,VWS V14.01,2013-06-02 11:30:00,
2013-06-02 07:33:00,72.0,67.9,29.78,SSE,149,4.0,5.0,87,0.00,,---,0.00,VWS V14.01,2013-06-02 11:33:00,
2013-06-02 07:34:00,72.0,67.9,29.78,SSE,159,5.0,6.0,87,0.00,,---,0.00,VWS V14.01,2013-06-02 11:34:00,
2013-06-02 07:35:00,72.1,68.0,29.78,SSE,153,5.0,6.0,87,0.00,,---,0.00,VWS V14.01,2013-06-02 11:35:00,
2013-06-02 07:37:00,72.2,67.8,29.78,South,174,4.0,6.0,86,0.00,,---,0.00,VWS V14.01,2013-06-02 11:37:00,
2013-06-02 07:39:00,72.3,67.9,29.78,SSE,157,4.0,6.0,86,0.00,,---,0.00,VWS V14.01,2013-06-02 11:39:00,
2013-06-02 07:42:00,72.3,67.9,29.78,South,175,5.0,6.0,86,0.00,,---,0.00,VWS V14.01,2013-06-02 11:42:00,
2013-06-02 07:43:00,72.4,68.0,29.78,SSE,149,5.0,6.0,86,0.00,,---,0.00,VWS V14.01,2013-06-02 11:43:00,
2013-06-02 07:44:00,72.4,68.0,29.78,SSE,150,4.0,6.0,86,0.00,,---,0.00,VWS V14.01,2013-06-02 11:44:00,
2013-06-02 07:45:00,72.5,68.1,29.78,SSE,163,4.0,6.0,86,0.00,,---,0.00,VWS V14.01,2013-06-02 11:45:00,
2013-06-02 07:46:00,72.6,68.2,29.78,South,176,3.0,6.0,86,0.00,,---,0.00,VWS V14.01,2013-06-02 11:46:00,
2013-06-02 07:48:00,72.6,68.2,29.78,SSW,205,3.0,6.0,86,0.00,,---,0.00,VWS V14.01,2013-06-02 11:48:00,
2013-06-02 07:50:00,72.7,67.9,29.78,SSW,212,2.0,6.0,85,0.00,,---,0.00,VWS V14.01,2013-06-02 11:50:00,
2013-06-02 07:51:00,72.7,67.9,29.78,SW,223,2.0,6.0,85,0.00,,---,0.00,VWS V14.01,2013-06-02 11:51:00,
2013-06-02 07:53:00,72.7,68.3,29.78,SSW,208,1.0,6.0,86,0.00,,---,0.00,VWS V14.01,2013-06-02 11:53:00,
2013-06-02 07:55:00,72.9,68.1,29.78,SE,131,2.0,6.0,85,0.00,,---,0.00,VWS V14.01,2013-06-02 11:55:00,
2013-06-02 07:56:00,73.0,68.2,29.78,ESE,118,1.0,6.0,85,0.00,,---,0.00,VWS V14.01,2013-06-02 11:56:00,
2013-06-02 07:57:00,73.1,68.3,29.78,SE,146,2.0,6.0,85,0.00,,---,0.00,VWS V14.01,2013-06-02 11:57:00,
2013-06-02 07:58:00,73.3,68.5,29.78,SSE,155,3.0,6.0,85,0.00,,---,0.00,VWS V14.01,2013-06-02 11:58:00,
2013-06-02 07:59:00,73.3,68.2,29.78,SE,146,2.0,3.0,84,0.00,,---,0.00,VWS V14.01,2013-06-02 11:59:00,
2013-06-02 08:00:00,73.3,68.2,29.78,SSE,160,2.0,3.0,84,0.00,,---,0.00,VWS V14.01,2013-06-02 12:00:00,
2013-06-02 08:01:00,73.3,68.2,29.78,SSW,197,0.0,3.0,84,0.00,,---,0.00,VWS V14.01,2013-06-02 12:01:00,
2013-06-02 08:03:00,73.4,68.3,29.78,SSW,210,0.0,3.0,84,0.00,,---,0.00,VWS V14.01,2013-06-02 12:03:00,
2013-06-02 08:04:00,73.4,68.3,29.78,SW,228,1.0,3.0,84,0.00,,---,0.00,VWS V14.01,2013-06-02 12:04:00,
2013-06-02 08:05:00,73.5,68.4,29.78,WSW,248,2.0,3.0,84,0.00,,---,0.00,VWS V14.01,2013-06-02 12:05:00,
2013-06-02 08:07:00,73.5,68.4,29.78,South,169,0.0,3.0,84,0.00,,---,0.00,VWS V14.01,2013-06-02 12:07:00,
2013-06-02 08:08:00,73.6,68.5,29.78,SE,134,0.0,3.0,84,0.00,,---,0.00,VWS V14.01,2013-06-02 12:08:00,
2013-06-02 08:10:00,73.7,68.6,29.78,South,186,1.0,3.0,84,0.00,,---,0.00,VWS V14.01,2013-06-02 12:10:00,
2013-06-02 08:14:00,73.9,68.4,29.78,SW,225,1.0,3.0,83,0.00,,---,0.00,VWS V14.01,2013-06-02 12:14:00,
2013-06-02 08:15:00,74.0,68.5,29.78,SW,219,1.0,3.0,83,0.00,,---,0.00,VWS V14.01,2013-06-02 12:15:00,
2013-06-02 08:16:00,74.0,68.5,29.78,WSW,245,0.0,3.0,83,0.00,,---,0.00,VWS V14.01,2013-06-02 12:16:00,
2013-06-02 08:20:00,74.2,68.7,29.78,SE,136,1.0,3.0,83,0.00,,---,0.00,VWS V14.01,2013-06-02 12:20:00,
2013-06-02 08:21:00,74.2,68.7,29.78,South,186,2.0,3.0,83,0.00,,---,0.00,VWS V14.01,2013-06-02 12:21:00,
2013-06-02 08:24:00,74.4,68.6,29.78,WSW,257,0.0,3.0,82,0.00,,---,0.00,VWS V14.01,2013-06-02 12:24:00,
2013-06-02 08:26:00,74.5,68.7,29.78,SW,235,0.0,3.0,82,0.00,,---,0.00,VWS V14.01,2013-06-02 12:26:00,
2013-06-02 08:27:00,74.6,68.8,29.78,SSE,156,1.0,3.0,82,0.00,,---,0.00,VWS V14.01,2013-06-02 12:27:00,
2013-06-02 08:29:00,74.9,69.0,29.78,SW,233,0.0,1.0,82,0.00,,---,0.00,VWS V14.01,2013-06-02 12:29:00,
2013-06-02 08:31:00,75.2,69.0,29.78,SSE,168,1.0,2.0,81,0.00,,---,0.00,VWS V14.01,2013-06-02 12:31:00,
2013-06-02 08:32:00,75.4,69.2,29.78,SSE,167,1.0,2.0,81,0.00,,---,0.00,VWS V14.01,2013-06-02 12:32:00,
2013-06-02 08:34:00,75.7,69.1,29.78,SW,215,0.0,3.0,80,0.00,,---,0.00,VWS V14.01,2013-06-02 12:34:00,
2013-06-02 08:36:00,75.9,68.9,29.77,South,181,2.0,3.0,79,0.00,,---,0.00,VWS V14.01,2013-06-02 12:36:00,
2013-06-02 08:37:00,76.0,69.0,29.77,SSE,166,1.0,3.0,79,0.00,,---,0.00,VWS V14.01,2013-06-02 12:37:00,
2013-06-02 08:38:00,76.1,69.1,29.77,South,191,2.0,3.0,79,0.00,,---,0.00,VWS V14.01,2013-06-02 12:38:00,
2013-06-02 08:39:00,76.2,69.2,29.77,South,169,2.0,3.0,79,0.00,,---,0.00,VWS V14.01,2013-06-02 12:39:00,
2013-06-02 08:42:00,76.6,69.6,29.78,SE,139,0.0,3.0,79,0.00,,---,0.00,VWS V14.01,2013-06-02 12:42:00,
2013-06-02 08:43:00,76.8,69.4,29.78,SSE,157,2.0,3.0,78,0.00,,---,0.00,VWS V14.01,2013-06-02 12:43:00,
2013-06-02 08:44:00,76.8,69.4,29.77,SE,139,3.0,3.0,78,0.00,,---,0.00,VWS V14.01,2013-06-02 12:44:00,
2013-06-02 08:47:00,76.5,69.1,29.77,SE,141,5.0,6.0,78,0.00,,---,0.00,VWS V14.01,2013-06-02 12:47:00,
2013-06-02 08:48:00,76.4,69.0,29.77,SSE,156,6.0,6.0,78,0.00,,---,0.00,VWS V14.01,2013-06-02 12:48:00,
2013-06-02 08:49:00,76.3,68.9,29.77,ESE,115,8.0,8.0,78,0.00,,---,0.00,VWS V14.01,2013-06-02 12:49:00,
2013-06-02 08:50:00,76.4,69.4,29.78,SSE,153,4.0,8.0,79,0.00,,---,0.00,VWS V14.01,2013-06-02 12:50:00,
2013-06-02 08:53:00,76.7,69.3,29.77,SSE,154,3.0,8.0,78,0.00,,---,0.00,VWS V14.01,2013-06-02 12:53:00,
2013-06-02 08:54:00,76.9,69.5,29.78,SSW,193,4.0,8.0,78,0.00,,---,0.00,VWS V14.01,2013-06-02 12:54:00,
2013-06-02 08:55:00,77.0,69.6,29.77,SSW,205,1.0,8.0,78,0.00,,---,0.00,VWS V14.01,2013-06-02 12:55:00,
2013-06-02 08:56:00,77.1,69.7,29.77,SSE,148,6.0,8.0,78,0.00,,---,0.00,VWS V14.01,2013-06-02 12:56:00,
2013-06-02 08:58:00,77.2,69.4,29.77,SSE,166,7.0,8.0,77,0.00,,---,0.00,VWS V14.01,2013-06-02 12:58:00,
2013-06-02 09:00:00,77.4,69.6,29.77,SSE,163,6.0,8.0,77,0.00,,---,0.00,VWS V14.01,2013-06-02 13:00:00,
2013-06-02 09:01:00,77.5,69.3,29.77,SE,145,8.0,8.0,76,0.00,,---,0.00,VWS V14.01,2013-06-02 13:01:00,
2013-06-02 09:02:00,77.6,69.4,29.77,South,190,4.0,8.0,76,0.00,,---,0.00,VWS V14.01,2013-06-02 13:02:00,
2013-06-02 09:03:00,77.7,69.5,29.77,South,169,4.0,8.0,76,0.00,,---,0.00,VWS V14.01,2013-06-02 13:03:00,
2013-06-02 09:05:00,78.1,69.5,29.77,SSE,162,3.0,8.0,75,0.00,,---,0.00,VWS V14.01,2013-06-02 13:05:00,
2013-06-02 09:06:00,78.2,69.6,29.77,SSW,196,5.0,8.0,75,0.00,,---,0.00,VWS V14.01,2013-06-02 13:06:00,
2013-06-02 09:07:00,78.3,69.7,29.77,SSW,203,5.0,8.0,75,0.00,,---,0.00,VWS V14.01,2013-06-02 13:07:00,
2013-06-02 09:08:00,78.3,69.7,29.77,SE,146,3.0,8.0,75,0.00,,---,0.00,VWS V14.01,2013-06-02 13:08:00,
2013-06-02 09:09:00,78.3,69.7,29.77,SSE,153,4.0,8.0,75,0.00,,---,0.00,VWS V14.01,2013-06-02 13:09:00,
2013-06-02 09:12:00,78.5,69.5,29.77,East,99,3.0,8.0,74,0.00,,---,0.00,VWS V14.01,2013-06-02 13:12:00,
2013-06-02 09:13:00,78.6,69.6,29.77,South,181,5.0,8.0,74,0.00,,---,0.00,VWS V14.01,2013-06-02 13:13:00,
2013-06-02 09:14:00,78.8,69.8,29.77,SSW,207,2.0,8.0,74,0.00,,---,0.00,VWS V14.01,2013-06-02 13:14:00,
2013-06-02 09:18:00,79.0,69.6,29.77,ESE,110,4.0,8.0,73,0.00,,---,0.00,VWS V14.01,2013-06-02 13:18:00,
2013-06-02 09:19:00,79.0,69.6,29.77,SSE,153,3.0,8.0,73,0.00,,---,0.00,VWS V14.01,2013-06-02 13:19:00,
2013-06-02 09:20:00,79.1,69.7,29.77,SSE,162,3.0,8.0,73,0.00,,---,0.00,VWS V14.01,2013-06-02 13:20:00,
2013-06-02 09:23:00,79.2,69.8,29.76,SSE,162,2.0,8.0,73,0.00,,---,0.00,VWS V14.01,2013-06-02 13:23:00,
2013-06-02 09:24:00,79.2,69.8,29.76,SSE,166,4.0,8.0,73,0.00,,---,0.00,VWS V14.01,2013-06-02 13:24:00,
2013-06-02 09:25:00,79.1,69.7,29.76,SSE,166,6.0,8.0,73,0.00,,---,0.00,VWS V14.01,2013-06-02 13:25:00,
2013-06-02 09:26:00,79.0,69.6,29.76,SSE,162,6.0,8.0,73,0.00,,---,0.00,VWS V14.01,2013-06-02 13:26:00,
2013-06-02 09:27:00,79.0,69.6,29.76,SSE,156,5.0,8.0,73,0.00,,---,0.00,VWS V14.01,2013-06-02 13:27:00,
2013-06-02 09:28:00,79.0,69.6,29.76,SE,140,5.0,8.0,73,0.00,,---,0.00,VWS V14.01,2013-06-02 13:28:00,
2013-06-02 09:30:00,78.9,69.5,29.76,South,169,4.0,5.0,73,0.00,,---,0.00,VWS V14.01,2013-06-02 13:30:00,
2013-06-02 09:32:00,78.8,69.4,29.76,SSE,160,3.0,5.0,73,0.00,,---,0.00,VWS V14.01,2013-06-02 13:32:00,
2013-06-02 09:35:00,78.5,69.5,29.76,South,184,3.0,5.0,74,0.00,,---,0.00,VWS V14.01,2013-06-02 13:35:00,
2013-06-02 09:36:00,78.5,69.9,29.76,SSE,154,5.0,5.0,75,0.00,,---,0.00,VWS V14.01,2013-06-02 13:36:00,
2013-06-02 09:37:00,78.5,69.5,29.76,South,181,5.0,5.0,74,0.00,,---,0.00,VWS V14.01,2013-06-02 13:37:00,
2013-06-02 09:38:00,78.5,69.5,29.75,SSE,166,3.0,5.0,74,0.00,,---,0.00,VWS V14.01,2013-06-02 13:38:00,
2013-06-02 09:40:00,78.8,69.8,29.75,SSE,167,4.0,5.0,74,0.00,,---,0.00,VWS V14.01,2013-06-02 13:40:00,
2013-06-02 09:41:00,78.7,69.7,29.75,South,169,3.0,5.0,74,0.00,,---,0.00,VWS V14.01,2013-06-02 13:41:00,
2013-06-02 09:42:00,78.7,69.7,29.75,SSW,194,3.0,5.0,74,0.00,,---,0.00,VWS V14.01,2013-06-02 13:42:00,
2013-06-02 09:43:00,78.8,69.8,29.75,South,184,3.0,5.0,74,0.00,,---,0.00,VWS V14.01,2013-06-02 13:43:00,
2013-06-02 09:44:00,78.7,69.7,29.75,SSE,167,2.0,5.0,74,0.00,,---,0.00,VWS V14.01,2013-06-02 13:44:00,
2013-06-02 09:45:00,78.8,69.8,29.75,South,188,4.0,5.0,74,0.00,,---,0.00,VWS V14.01,2013-06-02 13:45:00,
2013-06-02 09:47:00,78.9,69.9,29.75,South,175,5.0,6.0,74,0.00,,---,0.00,VWS V14.01,2013-06-02 13:47:00,
2013-06-02 09:48:00,79.0,69.6,29.75,South,183,5.0,6.0,73,0.00,,---,0.00,VWS V14.01,2013-06-02 13:48:00,
2013-06-02 09:49:00,79.1,69.7,29.75,South,169,6.0,6.0,73,0.00,,---,0.00,VWS V14.01,2013-06-02 13:49:00,
2013-06-02 09:50:00,79.2,69.8,29.75,SSE,168,5.0,6.0,73,0.00,,---,0.00,VWS V14.01,2013-06-02 13:50:00,
2013-06-02 09:52:00,79.2,69.8,29.75,South,174,5.0,6.0,73,0.00,,---,0.00,VWS V14.01,2013-06-02 13:52:00,
2013-06-02 09:53:00,79.2,69.8,29.75,SSE,165,5.0,6.0,73,0.00,,---,0.00,VWS V14.01,2013-06-02 13:53:00,
2013-06-02 09:54:00,79.2,69.8,29.75,SSW,198,6.0,7.0,73,0.00,,---,0.00,VWS V14.01,2013-06-02 13:54:00,
2013-06-02 09:57:00,79.0,69.6,29.75,SSE,147,2.0,7.0,73,0.00,,---,0.00,VWS V14.01,2013-06-02 13:57:00,
2013-06-02 09:58:00,79.0,69.6,29.75,SSE,156,4.0,7.0,73,0.00,,---,0.00,VWS V14.01,2013-06-02 13:58:00,
2013-06-02 10:00:00,78.8,69.4,29.75,South,186,4.0,6.0,73,0.00,,---,0.00,VWS V14.01,2013-06-02 14:00:00,
2013-06-02 10:02:00,79.1,69.7,29.75,SW,233,9.0,9.0,73,0.00,,---,0.00,VWS V14.01,2013-06-02 14:02:00,
2013-06-02 10:03:00,79.2,69.8,29.75,SSW,202,8.0,9.0,73,0.00,,---,0.00,VWS V14.01,2013-06-02 14:03:00,
2013-06-02 10:05:00,79.7,69.9,29.75,South,180,9.0,10.0,72,0.00,,---,0.00,VWS V14.01,2013-06-02 14:05:00,
2013-06-02 10:08:00,80.5,69.8,29.75,SSE,160,6.0,10.0,70,0.00,,---,0.00,VWS V14.01,2013-06-02 14:08:00,
2013-06-02 10:09:00,80.7,70.0,29.75,SSE,152,7.0,10.0,70,0.00,,---,0.00,VWS V14.01,2013-06-02 14:09:00,
2013-06-02 10:11:00,80.8,69.7,29.75,South,172,8.0,10.0,69,0.00,,---,0.00,VWS V14.01,2013-06-02 14:11:00,
2013-06-02 10:13:00,80.9,69.8,29.75,SSW,200,9.0,10.0,69,0.00,,---,0.00,VWS V14.01,2013-06-02 14:13:00,
2013-06-02 10:14:00,80.8,69.7,29.75,South,170,5.0,11.0,69,0.00,,---,0.00,VWS V14.01,2013-06-02 14:14:00,
2013-06-02 10:15:00,80.8,69.7,29.75,SSE,166,7.0,11.0,69,0.00,,---,0.00,VWS V14.01,2013-06-02 14:15:00,
2013-06-02 10:16:00,80.8,69.7,29.75,South,172,8.0,11.0,69,0.00,,---,0.00,VWS V14.01,2013-06-02 14:16:00,
2013-06-02 10:17:00,80.9,69.8,29.75,SSW,193,8.0,11.0,69,0.00,,---,0.00,VWS V14.01,2013-06-02 14:17:00,
2013-06-02 10:19:00,81.0,69.9,29.74,South,170,8.0,11.0,69,0.00,,---,0.00,VWS V14.01,2013-06-02 14:19:00,
2013-06-02 10:21:00,80.9,69.8,29.75,South,177,7.0,11.0,69,0.00,,---,0.00,VWS V14.01,2013-06-02 14:21:00,
2013-06-02 10:22:00,80.8,69.7,29.74,East,81,13.0,13.0,69,0.00,,---,0.00,VWS V14.01,2013-06-02 14:22:00,
2013-06-02 10:23:00,81.0,69.9,29.74,SSE,165,7.0,13.0,69,0.00,,---,0.00,VWS V14.01,2013-06-02 14:23:00,
2013-06-02 10:24:00,81.1,70.0,29.74,East,83,7.0,13.0,69,0.00,,---,0.00,VWS V14.01,2013-06-02 14:24:00,
2013-06-02 10:26:00,81.2,69.6,29.74,East,96,7.0,13.0,68,0.00,,---,0.00,VWS V14.01,2013-06-02 14:26:00,
2013-06-02 10:27:00,81.3,69.7,29.74,ESE,107,7.0,13.0,68,0.00,,---,0.00,VWS V14.01,2013-06-02 14:27:00,
2013-06-02 10:28:00,81.2,69.6,29.74,SW,236,9.0,13.0,68,0.00,,---,0.00,VWS V14.01,2013-06-02 14:28:00,
2013-06-02 10:30:00,81.5,69.9,29.74,West,267,1.0,5.0,68,0.00,,---,0.00,VWS V14.01,2013-06-02 14:30:00,
2013-06-02 10:31:00,81.9,69.9,29.74,SE,127,2.0,8.0,67,0.00,,---,0.00,VWS V14.01,2013-06-02 14:31:00,
2013-06-02 10:33:00,82.2,69.7,29.74,NNE,15,3.0,10.0,66,0.00,,---,0.00,VWS V14.01,2013-06-02 14:33:00,
2013-06-02 10:34:00,82.4,69.9,29.74,South,177,6.0,10.0,66,0.00,,---,0.00,VWS V14.01,2013-06-02 14:34:00,
2013-06-02 10:35:00,82.5,70.0,29.74,South,184,7.0,11.0,66,0.00,,---,0.00,VWS V14.01,2013-06-02 14:35:00,
2013-06-02 10:37:00,82.5,69.6,29.74,SSW,210,11.0,13.0,65,0.00,,---,0.00,VWS V14.01,2013-06-02 14:37:00,
2013-06-02 10:39:00,82.6,69.7,29.74,SSW,204,8.0,13.0,65,0.00,,---,0.00,VWS V14.01,2013-06-02 14:39:00,
2013-06-02 10:40:00,82.6,69.7,29.74,SSE,165,9.0,13.0,65,0.00,,---,0.00,VWS V14.01,2013-06-02 14:40:00,
2013-06-02 10:42:00,82.6,69.7,29.74,SSW,206,5.0,13.0,65,0.00,,---,0.00,VWS V14.01,2013-06-02 14:42:00,
2013-06-02 10:45:00,82.7,69.8,29.74,WSW,240,6.0,13.0,65,0.00,,---,0.00,VWS V14.01,2013-06-02 14:45:00,
2013-06-02 10:46:00,82.8,69.4,29.74,SSE,163,4.0,13.0,64,0.00,,---,0.00,VWS V14.01,2013-06-02 14:46:00,
2013-06-02 10:47:00,82.9,69.5,29.74,SE,140,6.0,13.0,64,0.00,,---,0.00,VWS V14.01,2013-06-02 14:47:00,
2013-06-02 10:50:00,83.0,69.6,29.74,SSE,147,3.0,13.0,64,0.00,,---,0.00,VWS V14.01,2013-06-02 14:50:00,
2013-06-02 10:52:00,83.1,69.7,29.74,SSW,200,6.0,13.0,64,0.00,,---,0.00,VWS V14.01,2013-06-02 14:52:00,
2013-06-02 10:53:00,83.2,69.8,29.74,SSW,197,4.0,13.0,64,0.00,,---,0.00,VWS V14.01,2013-06-02 14:53:00,
2013-06-02 10:54:00,83.4,69.9,29.74,ENE,61,9.0,13.0,64,0.00,,---,0.00,VWS V14.01,2013-06-02 14:54:00,
2013-06-02 10:56:00,83.4,69.9,29.74,SE,136,6.0,13.0,64,0.00,,---,0.00,VWS V14.01,2013-06-02 14:56:00,
2013-06-02 10:57:00,83.3,69.9,29.74,SW,236,7.0,13.0,64,0.00,,---,0.00,VWS V14.01,2013-06-02 14:57:00,
2013-06-02 10:58:00,83.2,69.8,29.74,ESE,118,8.0,13.0,64,0.00,,---,0.00,VWS V14.01,2013-06-02 14:58:00,
2013-06-02 10:59:00,83.1,69.7,29.74,SE,131,6.0,10.0,64,0.00,,---,0.00,VWS V14.01,2013-06-02 14:59:00,
2013-06-02 11:01:00,83.3,69.9,29.74,NE,45,3.0,13.0,64,0.00,,---,0.00,VWS V14.01,2013-06-02 15:01:00,
2013-06-02 11:03:00,83.5,70.1,29.74,SSW,208,6.0,13.0,64,0.00,,---,0.00,VWS V14.01,2013-06-02 15:03:00,
2013-06-02 11:04:00,83.5,70.1,29.74,ESE,115,6.0,13.0,64,0.00,,---,0.00,VWS V14.01,2013-06-02 15:04:00,
2013-06-02 11:05:00,83.6,69.7,29.74,East,91,6.0,13.0,63,0.00,,---,0.00,VWS V14.01,2013-06-02 15:05:00,
2013-06-02 11:07:00,83.6,69.7,29.74,SW,225,7.0,13.0,63,0.00,,---,0.00,VWS V14.01,2013-06-02 15:07:00,
2013-06-02 11:08:00,83.7,69.8,29.74,ESE,120,10.0,13.0,63,0.00,,---,0.00,VWS V14.01,2013-06-02 15:08:00,
2013-06-02 11:09:00,83.7,69.8,29.73,SSE,152,12.0,15.0,63,0.00,,---,0.00,VWS V14.01,2013-06-02 15:09:00,
2013-06-02 11:10:00,83.8,69.9,29.73,ESE,115,5.0,15.0,63,0.00,,---,0.00,VWS V14.01,2013-06-02 15:10:00,
2013-06-02 11:14:00,84.0,69.6,29.73,NNW,338,5.0,15.0,62,0.00,,---,0.00,VWS V14.01,2013-06-02 15:14:00,
2013-06-02 11:15:00,84.1,70.2,29.73,SW,215,6.0,15.0,63,0.00,,---,0.00,VWS V14.01,2013-06-02 15:15:00,
2013-06-02 11:16:00,84.1,69.7,29.73,East,81,9.0,15.0,62,0.00,,---,0.00,VWS V14.01,2013-06-02 15:16:00,
2013-06-02 11:20:00,84.3,69.9,29.73,South,188,5.0,15.0,62,0.00,,---,0.00,VWS V14.01,2013-06-02 15:20:00,
2013-06-02 11:21:00,84.3,69.9,29.73,ESE,112,9.0,15.0,62,0.00,,---,0.00,VWS V14.01,2013-06-02 15:21:00,
2013-06-02 11:22:00,84.3,70.3,29.73,SSW,205,3.0,15.0,63,0.00,,---,0.00,VWS V14.01,2013-06-02 15:22:00,
2013-06-02 11:26:00,84.5,70.5,29.73,SSE,160,4.0,15.0,63,0.00,,---,0.00,VWS V14.01,2013-06-02 15:26:00,
2013-06-02 11:27:00,84.6,70.6,29.72,South,191,6.0,15.0,63,0.00,,---,0.00,VWS V14.01,2013-06-02 15:27:00,
2013-06-02 11:31:00,84.7,70.7,29.72,SSE,149,6.0,7.0,63,0.00,,---,0.00,VWS V14.01,2013-06-02 15:31:00,
2013-06-02 11:32:00,84.7,70.7,29.72,ESE,115,5.0,7.0,63,0.00,,---,0.00,VWS V14.01,2013-06-02 15:32:00,
2013-06-02 11:33:00,84.7,70.7,29.72,SSW,201,5.0,7.0,63,0.00,,---,0.00,VWS V14.01,2013-06-02 15:33:00,
2013-06-02 11:37:00,85.1,70.2,29.72,East,87,6.0,9.0,61,0.00,,---,0.00,VWS V14.01,2013-06-02 15:37:00,
2013-06-02 11:38:00,85.1,70.2,29.72,SSW,208,5.0,9.0,61,0.00,,---,0.00,VWS V14.01,2013-06-02 15:38:00,
2013-06-02 11:39:00,85.1,70.2,29.72,ENE,63,3.0,10.0,61,0.00,,---,0.00,VWS V14.01,2013-06-02 15:39:00,
2013-06-02 11:43:00,85.2,70.2,29.72,South,172,7.0,10.0,61,0.00,,---,0.00,VWS V14.01,2013-06-02 15:43:00,
2013-06-02 11:44:00,85.0,70.1,29.72,ESE,120,6.0,10.0,61,0.00,,---,0.00,VWS V14.01,2013-06-02 15:44:00,
2013-06-02 11:47:00,85.0,70.1,29.72,SW,215,7.0,10.0,61,0.00,,---,0.00,VWS V14.01,2013-06-02 15:47:00,
2013-06-02 11:48:00,85.1,70.2,29.72,WSW,245,10.0,10.0,61,0.00,,---,0.00,VWS V14.01,2013-06-02 15:48:00,
2013-06-02 11:49:00,85.2,70.2,29.72,East,86,7.0,10.0,61,0.00,,---,0.00,VWS V14.01,2013-06-02 15:49:00,
2013-06-02 11:50:00,85.3,70.3,29.72,ENE,58,5.0,10.0,61,0.00,,---,0.00,VWS V14.01,2013-06-02 15:50:00,
2013-06-02 11:51:00,85.3,70.3,29.72,ENE,77,7.0,10.0,61,0.00,,---,0.00,VWS V14.01,2013-06-02 15:51:00,
2013-06-02 11:52:00,85.3,69.8,29.72,SSW,208,5.0,10.0,60,0.00,,---,0.00,VWS V14.01,2013-06-02 15:52:00,
2013-06-02 11:54:00,85.3,69.8,29.72,SSE,160,11.0,14.0,60,0.00,,---,0.00,VWS V14.01,2013-06-02 15:54:00,
2013-06-02 11:55:00,85.3,69.8,29.72,SE,128,6.0,14.0,60,0.00,,---,0.00,VWS V14.01,2013-06-02 15:55:00,
2013-06-02 11:56:00,85.2,69.8,29.72,ENE,76,12.0,18.0,60,0.00,,---,0.00,VWS V14.01,2013-06-02 15:56:00,
2013-06-02 11:58:00,85.1,69.2,29.72,SW,227,7.0,18.0,59,0.00,,---,0.00,VWS V14.01,2013-06-02 15:58:00,
2013-06-02 12:00:00,85.1,69.2,29.72,WNW,302,4.0,15.0,59,0.00,,---,0.00,VWS V14.01,2013-06-02 16:00:00,
2013-06-02 12:01:00,85.4,69.0,29.72,SW,225,6.0,17.0,58,0.00,,---,0.00,VWS V14.01,2013-06-02 16:01:00,
2013-06-02 12:02:00,85.6,69.1,29.72,SSW,197,4.0,17.0,58,0.00,,---,0.00,VWS V14.01,2013-06-02 16:02:00,
2013-06-02 12:03:00,85.6,69.1,29.72,South,189,4.0,17.0,58,0.00,,---,0.00,VWS V14.01,2013-06-02 16:03:00,
2013-06-02 12:04:00,85.7,69.7,29.72,SSE,153,7.0,17.0,59,0.00,,---,0.00,VWS V14.01,2013-06-02 16:04:00,
2013-06-02 12:05:00,85.7,69.7,29.72,South,183,13.0,17.0,59,0.00,,---,0.00,VWS V14.01,2013-06-02 16:05:00,
2013-06-02 12:07:00,85.6,68.6,29.72,WSW,238,10.0,17.0,57,0.00,,---,0.00,VWS V14.01,2013-06-02 16:07:00,
2013-06-02 12:08:00,85.6,68.6,29.72,ESE,113,7.0,17.0,57,0.00,,---,0.00,VWS V14.01,2013-06-02 16:08:00,
2013-06-02 12:09:00,85.6,68.6,29.72,SE,141,10.0,17.0,57,0.00,,---,0.00,VWS V14.01,2013-06-02 16:09:00,
2013-06-02 12:10:00,85.6,68.6,29.72,SSW,210,11.0,17.0,57,0.00,,---,0.00,VWS V14.01,2013-06-02 16:10:00,
2013-06-02 12:11:00,85.6,68.6,29.72,SSE,152,7.0,17.0,57,0.00,,---,0.00,VWS V14.01,2013-06-02 16:11:00,
2013-06-02 12:12:00,85.7,68.7,29.72,SW,214,4.0,17.0,57,0.00,,---,0.00,VWS V14.01,2013-06-02 16:12:00,
2013-06-02 12:14:00,85.9,68.4,29.72,SSW,195,8.0,17.0,56,0.00,,---,0.00,VWS V14.01,2013-06-02 16:14:00,
2013-06-02 12:15:00,86.0,68.0,29.72,ESE,118,10.0,17.0,55,0.00,,---,0.00,VWS V14.01,2013-06-02 16:15:00,
2013-06-02 12:16:00,86.0,68.0,29.72,ENE,73,12.0,17.0,55,0.00,,---,0.00,VWS V14.01,2013-06-02 16:16:00,
2013-06-02 12:18:00,86.1,68.1,29.72,SW,236,6.0,17.0,55,0.00,,---,0.00,VWS V14.01,2013-06-02 16:18:00,
2013-06-02 12:20:00,86.1,68.1,29.72,SSE,162,7.0,17.0,55,0.00,,---,0.00,VWS V14.01,2013-06-02 16:20:00,
2013-06-02 12:21:00,86.0,68.0,29.71,SSE,152,13.0,17.0,55,0.00,,---,0.00,VWS V14.01,2013-06-02 16:21:00,
2013-06-02 12:23:00,85.8,67.8,29.71,South,189,10.0,17.0,55,0.00,,---,0.00,VWS V14.01,2013-06-02 16:23:00,
2013-06-02 12:24:00,85.8,67.8,29.71,ESE,120,15.0,17.0,55,0.00,,---,0.00,VWS V14.01,2013-06-02 16:24:00,
2013-06-02 12:25:00,85.8,67.8,29.71,WSW,238,7.0,17.0,55,0.00,,---,0.00,VWS V14.01,2013-06-02 16:25:00,
2013-06-02 12:26:00,85.8,67.8,29.71,SSW,208,6.0,17.0,55,0.00,,---,0.00,VWS V14.01,2013-06-02 16:26:00,
2013-06-02 12:29:00,86.1,68.1,29.71,SSW,203,10.0,19.0,55,0.00,,---,0.00,VWS V14.01,2013-06-02 16:29:00,
2013-06-02 12:30:00,86.2,67.6,29.71,SW,227,13.0,19.0,54,0.00,,---,0.00,VWS V14.01,2013-06-02 16:30:00,
2013-06-02 12:32:00,86.3,67.7,29.71,SE,140,6.0,19.0,54,0.00,,---,0.00,VWS V14.01,2013-06-02 16:32:00,
2013-06-02 12:33:00,86.3,67.7,29.70,South,172,14.0,19.0,54,0.00,,---,0.00,VWS V14.01,2013-06-02 16:33:00,
2013-06-02 12:36:00,86.0,67.4,29.70,South,172,14.0,19.0,54,0.00,,---,0.00,VWS V14.01,2013-06-02 16:36:00,
2013-06-02 12:37:00,86.0,67.4,29.70,SW,215,15.0,19.0,54,0.00,,---,0.00,VWS V14.01,2013-06-02 16:37:00,
2013-06-02 12:38:00,86.0,67.4,29.71,NE,52,10.0,19.0,54,0.00,,---,0.00,VWS V14.01,2013-06-02 16:38:00,
2013-06-02 12:39:00,86.1,67.5,29.70,SSE,163,15.0,19.0,54,0.00,,---,0.00,VWS V14.01,2013-06-02 16:39:00,
2013-06-02 12:42:00,86.3,67.2,29.70,SSE,165,8.0,19.0,53,0.00,,---,0.00,VWS V14.01,2013-06-02 16:42:00,
2013-06-02 12:43:00,86.4,66.7,29.70,SW,214,4.0,19.0,52,0.00,,---,0.00,VWS V14.01,2013-06-02 16:43:00,
2013-06-02 12:45:00,86.6,66.9,29.70,ESE,109,6.0,19.0,52,0.00,,---,0.00,VWS V14.01,2013-06-02 16:45:00,
2013-06-02 12:47:00,86.8,66.5,29.70,SW,235,9.0,19.0,51,0.00,,---,0.00,VWS V14.01,2013-06-02 16:47:00,
2013-06-02 12:48:00,87.0,66.7,29.70,NNE,32,10.0,19.0,51,0.00,,---,0.00,VWS V14.01,2013-06-02 16:48:00,
2013-06-02 12:49:00,87.0,66.7,29.70,SSE,149,9.0,19.0,51,0.00,,---,0.00,VWS V14.01,2013-06-02 16:49:00,
2013-06-02 12:50:00,87.2,66.9,29.70,South,176,12.0,19.0,51,0.00,,---,0.00,VWS V14.01,2013-06-02 16:50:00,
2013-06-02 12:52:00,87.0,67.3,29.70,South,172,7.0,19.0,52,0.00,,---,0.00,VWS V14.01,2013-06-02 16:52:00,
2013-06-02 12:53:00,86.9,67.2,29.70,SSW,205,9.0,19.0,52,0.00,,---,0.00,VWS V14.01,2013-06-02 16:53:00,
2013-06-02 12:54:00,86.6,66.9,29.70,SE,129,8.0,19.0,52,0.00,,---,0.00,VWS V14.01,2013-06-02 16:54:00,
2013-06-02 12:55:00,86.5,66.8,29.70,North,356,14.0,19.0,52,0.00,,---,0.00,VWS V14.01,2013-06-02 16:55:00,
2013-06-02 12:57:00,86.5,66.8,29.70,ESE,116,15.0,20.0,52,0.00,,---,0.00,VWS V14.01,2013-06-02 16:57:00,
2013-06-02 12:58:00,86.6,66.3,29.70,NW,311,12.0,20.0,51,0.00,,---,0.00,VWS V14.01,2013-06-02 16:58:00,
2013-06-02 12:59:00,86.7,65.9,29.70,South,190,14.0,18.0,50,0.00,,---,0.00,VWS V14.01,2013-06-02 16:59:00,
2013-06-02 13:00:00,86.8,66.5,29.70,SW,219,17.0,18.0,51,0.00,,---,0.00,VWS V14.01,2013-06-02 17:00:00,
2013-06-02 13:03:00,86.8,66.5,29.70,SSE,159,9.0,18.0,51,0.00,,---,0.00,VWS V14.01,2013-06-02 17:03:00,
2013-06-02 13:05:00,86.8,67.1,29.69,South,184,11.0,18.0,52,0.00,,---,0.00,VWS V14.01,2013-06-02 17:05:00,
2013-06-02 13:08:00,86.6,66.9,29.69,SW,224,14.0,18.0,52,0.00,,---,0.00,VWS V14.01,2013-06-02 17:08:00,
2013-06-02 13:09:00,86.6,66.3,29.70,SSW,195,10.0,18.0,51,0.00,,---,0.00,VWS V14.01,2013-06-02 17:09:00,
2013-06-02 13:10:00,86.7,65.9,29.70,SSE,153,14.0,18.0,50,0.00,,---,0.00,VWS V14.01,2013-06-02 17:10:00,
2013-06-02 13:12:00,86.8,65.9,29.70,SSE,165,5.0,19.0,50,0.00,,---,0.00,VWS V14.01,2013-06-02 17:12:00,
2013-06-02 13:14:00,87.1,66.8,29.70,SW,215,13.0,19.0,51,0.00,,---,0.00,VWS V14.01,2013-06-02 17:14:00,
2013-06-02 13:15:00,87.1,66.8,29.70,SE,136,11.0,19.0,51,0.00,,---,0.00,VWS V14.01,2013-06-02 17:15:00,
2013-06-02 13:16:00,87.2,66.9,29.69,South,172,10.0,19.0,51,0.00,,---,0.00,VWS V14.01,2013-06-02 17:16:00,
2013-06-02 13:17:00,87.3,66.4,29.69,South,181,5.0,19.0,50,0.00,,---,0.00,VWS V14.01,2013-06-02 17:17:00,
2013-06-02 13:20:00,87.5,67.2,29.69,East,98,10.0,19.0,51,0.00,,---,0.00,VWS V14.01,2013-06-02 17:20:00,
2013-06-02 13:21:00,87.6,66.7,29.69,East,100,8.0,19.0,50,0.00,,---,0.00,VWS V14.01,2013-06-02 17:21:00,
2013-06-02 13:22:00,87.7,66.8,29.69,ESE,115,11.0,19.0,50,0.00,,---,0.00,VWS V14.01,2013-06-02 17:22:00,
2013-06-02 13:23:00,87.7,66.8,29.69,SSW,207,4.0,19.0,50,0.00,,---,0.00,VWS V14.01,2013-06-02 17:23:00,
2013-06-02 13:26:00,87.7,67.3,29.69,SE,134,7.0,19.0,51,0.00,,---,0.00,VWS V14.01,2013-06-02 17:26:00,
2013-06-02 13:27:00,87.6,67.2,29.69,SSW,207,6.0,19.0,51,0.00,,---,0.00,VWS V14.01,2013-06-02 17:27:00,
2013-06-02 13:29:00,87.4,67.1,29.69,SSE,165,13.0,15.0,51,0.00,,---,0.00,VWS V14.01,2013-06-02 17:29:00,
2013-06-02 13:31:00,87.5,67.2,29.69,SW,229,10.0,15.0,51,0.00,,---,0.00,VWS V14.01,2013-06-02 17:31:00,
2013-06-02 13:32:00,87.5,67.2,29.69,WSW,256,7.0,15.0,51,0.00,,---,0.00,VWS V14.01,2013-06-02 17:32:00,
2013-06-02 13:33:00,87.5,67.7,29.69,NNW,333,8.0,15.0,52,0.00,,---,0.00,VWS V14.01,2013-06-02 17:33:00,
2013-06-02 13:34:00,87.4,67.6,29.69,East,94,3.0,15.0,52,0.00,,---,0.00,VWS V14.01,2013-06-02 17:34:00,
2013-06-02 13:36:00,87.3,67.5,29.68,SSW,193,7.0,15.0,52,0.00,,---,0.00,VWS V14.01,2013-06-02 17:36:00,
2013-06-02 13:37:00,87.3,67.5,29.68,SW,219,11.0,15.0,52,0.00,,---,0.00,VWS V14.01,2013-06-02 17:37:00,
2013-06-02 13:38:00,87.2,67.4,29.68,SSE,162,10.0,15.0,52,0.00,,---,0.00,VWS V14.01,2013-06-02 17:38:00,
2013-06-02 13:39:00,87.2,67.4,29.68,ENE,68,12.0,15.0,52,0.00,,---,0.00,VWS V14.01,2013-06-02 17:39:00,
2013-06-02 13:40:00,87.0,67.3,29.68,SSW,200,13.0,17.0,52,0.00,,---,0.00,VWS V14.01,2013-06-02 17:40:00,
2013-06-02 13:43:00,86.7,67.0,29.68,SSW,208,5.0,19.0,52,0.00,,---,0.00,VWS V14.01,2013-06-02 17:43:00,
2013-06-02 13:44:00,86.9,67.7,29.68,SSW,212,8.0,19.0,53,0.00,,---,0.00,VWS V14.01,2013-06-02 17:44:00,
2013-06-02 13:45:00,86.9,67.2,29.68,SE,140,8.0,19.0,52,0.00,,---,0.00,VWS V14.01,2013-06-02 17:45:00,
2013-06-02 13:46:00,87.0,67.3,29.67,WSW,243,10.0,19.0,52,0.00,,---,0.00,VWS V14.01,2013-06-02 17:46:00,
2013-06-02 13:49:00,87.0,67.3,29.68,WSW,252,16.0,19.0,52,0.00,,---,0.00,VWS V14.01,2013-06-02 17:49:00,
2013-06-02 13:50:00,87.2,67.4,29.67,South,170,12.0,19.0,52,0.00,,---,0.00,VWS V14.01,2013-06-02 17:50:00,
2013-06-02 13:51:00,87.2,67.4,29.67,WNW,289,6.0,19.0,52,0.00,,---,0.00,VWS V14.01,2013-06-02 17:51:00,
2013-06-02 13:52:00,87.2,66.9,29.67,SW,221,16.0,19.0,51,0.00,,---,0.00,VWS V14.01,2013-06-02 17:52:00,
2013-06-02 13:54:00,87.4,67.1,29.67,ENE,74,12.0,19.0,51,0.00,,---,0.00,VWS V14.01,2013-06-02 17:54:00,
2013-06-02 13:55:00,87.4,67.1,29.67,SE,143,7.0,19.0,51,0.00,,---,0.00,VWS V14.01,2013-06-02 17:55:00,
2013-06-02 13:56:00,87.4,67.1,29.67,NNW,335,6.0,19.0,51,0.00,,---,0.00,VWS V14.01,2013-06-02 17:56:00,
2013-06-02 13:59:00,87.3,67.5,29.67,South,181,11.0,11.0,52,0.00,,---,0.00,VWS V14.01,2013-06-02 17:59:00,
2013-06-02 14:00:00,87.3,67.0,29.67,NNE,32,5.0,11.0,51,0.00,,---,0.00,VWS V14.01,2013-06-02 18:00:00,
2013-06-02 14:01:00,87.3,67.0,29.66,South,180,8.0,11.0,51,0.00,,---,0.00,VWS V14.01,2013-06-02 18:01:00,
2013-06-02 14:02:00,87.3,67.5,29.67,East,85,6.0,12.0,52,0.00,,---,0.00,VWS V14.01,2013-06-02 18:02:00,
2013-06-02 14:05:00,87.1,67.4,29.66,South,177,12.0,12.0,52,0.00,,---,0.00,VWS V14.01,2013-06-02 18:05:00,
2013-06-02 14:06:00,87.1,67.4,29.66,ESE,110,10.0,13.0,52,0.00,,---,0.00,VWS V14.01,2013-06-02 18:06:00,
2013-06-02 14:07:00,87.1,67.9,29.66,SSE,156,8.0,14.0,53,0.00,,---,0.00,VWS V14.01,2013-06-02 18:07:00,
2013-06-02 14:10:00,86.6,67.4,29.66,SSE,158,14.0,15.0,53,0.00,,---,0.00,VWS V14.01,2013-06-02 18:10:00,
2013-06-02 14:11:00,86.6,67.4,29.66,SSE,152,9.0,16.0,53,0.00,,---,0.00,VWS V14.01,2013-06-02 18:11:00,
2013-06-02 14:13:00,86.5,67.3,29.65,SW,222,11.0,16.0,53,0.00,,---,0.00,VWS V14.01,2013-06-02 18:13:00,
2013-06-02 14:16:00,86.6,67.4,29.65,ESE,120,7.0,16.0,53,0.00,,---,0.00,VWS V14.01,2013-06-02 18:16:00,
2013-06-02 14:17:00,86.5,67.3,29.65,SSE,166,4.0,16.0,53,0.00,,---,0.00,VWS V14.01,2013-06-02 18:17:00,
2013-06-02 14:18:00,86.4,67.8,29.65,SW,229,14.0,16.0,54,0.00,,---,0.00,VWS V14.01,2013-06-02 18:18:00,
2013-06-02 14:22:00,86.6,67.4,29.65,SW,224,11.0,20.0,53,0.00,,---,0.00,VWS V14.01,2013-06-02 18:22:00,
2013-06-02 14:23:00,86.7,67.5,29.65,SSE,152,10.0,20.0,53,0.00,,---,0.00,VWS V14.01,2013-06-02 18:23:00,
2013-06-02 14:27:00,86.7,67.0,29.65,SSW,193,5.0,20.0,52,0.00,,---,0.00,VWS V14.01,2013-06-02 18:27:00,
2013-06-02 14:28:00,86.7,67.0,29.65,SSW,205,8.0,20.0,52,0.00,,---,0.00,VWS V14.01,2013-06-02 18:28:00,
2013-06-02 14:29:00,86.7,67.0,29.65,ENE,67,8.0,13.0,52,0.00,,---,0.00,VWS V14.01,2013-06-02 18:29:00,
2013-06-02 14:33:00,87.1,66.8,29.65,NNE,18,7.0,19.0,51,0.00,,---,0.00,VWS V14.01,2013-06-02 18:33:00,
2013-06-02 14:35:00,87.4,67.1,29.65,SSE,153,7.0,19.0,51,0.00,,---,0.00,VWS V14.01,2013-06-02 18:35:00,
2013-06-02 14:38:00,87.6,67.2,29.65,NE,35,7.0,19.0,51,0.00,,---,0.00,VWS V14.01,2013-06-02 18:38:00,
2013-06-02 14:39:00,87.6,67.2,29.65,WSW,245,13.0,19.0,51,0.00,,---,0.00,VWS V14.01,2013-06-02 18:39:00,
2013-06-02 14:41:00,87.5,66.6,29.65,South,183,9.0,19.0,50,0.00,,---,0.00,VWS V14.01,2013-06-02 18:41:00,
2013-06-02 14:44:00,87.3,66.4,29.65,SSE,165,8.0,19.0,50,0.00,,---,0.00,VWS V14.01,2013-06-02 18:44:00,
2013-06-02 14:45:00,87.1,66.8,29.65,South,191,6.0,19.0,51,0.00,,---,0.00,VWS V14.01,2013-06-02 18:45:00,
2013-06-02 14:46:00,86.6,66.9,29.65,WSW,238,11.0,19.0,52,0.00,,---,0.00,VWS V14.01,2013-06-02 18:46:00,
2013-06-02 14:47:00,86.5,66.8,29.65,WSW,249,12.0,19.0,52,0.00,,---,0.00,VWS V14.01,2013-06-02 18:47:00,
2013-06-02 14:49:00,86.3,67.2,29.65,SE,130,9.0,19.0,53,0.00,,---,0.00,VWS V14.01,2013-06-02 18:49:00,
2013-06-02 14:50:00,86.3,67.2,29.65,SSW,198,8.0,19.0,53,0.00,,---,0.00,VWS V14.01,2013-06-02 18:50:00,
2013-06-02 14:52:00,86.4,66.7,29.65,ESE,115,10.0,19.0,52,0.00,,---,0.00,VWS V14.01,2013-06-02 18:52:00,
2013-06-02 14:53:00,86.4,66.7,29.65,WNW,290,5.0,19.0,52,0.00,,---,0.00,VWS V14.01,2013-06-02 18:53:00,
2013-06-02 14:54:00,86.4,67.3,29.65,South,188,8.0,19.0,53,0.00,,---,0.00,VWS V14.01,2013-06-02 18:54:00,
2013-06-02 14:56:00,86.5,66.8,29.65,South,190,6.0,19.0,52,0.00,,---,0.00,VWS V14.01,2013-06-02 18:56:00,
2013-06-02 14:57:00,86.5,66.8,29.65,SW,214,6.0,19.0,52,0.00,,---,0.00,VWS V14.01,2013-06-02 18:57:00,
2013-06-02 14:59:00,86.5,67.3,29.65,West,262,6.0,9.0,53,0.00,,---,0.00,VWS V14.01,2013-06-02 18:59:00,
2013-06-02 15:00:00,86.3,67.2,29.65,South,181,8.0,9.0,53,0.00,,---,0.00,VWS V14.01,2013-06-02 19:00:00,
2013-06-02 15:02:00,86.2,67.1,29.65,SW,226,14.0,14.0,53,0.00,,---,0.00,VWS V14.01,2013-06-02 19:02:00,
2013-06-02 15:04:00,86.4,66.7,29.64,West,265,10.0,17.0,52,0.00,,---,0.00,VWS V14.01,2013-06-02 19:04:00,
2013-06-02 15:05:00,86.5,66.2,29.64,SSW,198,6.0,19.0,51,0.00,,---,0.00,VWS V14.01,2013-06-02 19:05:00,
2013-06-02 15:08:00,86.5,66.8,29.64,SW,226,10.0,19.0,52,0.00,,---,0.00,VWS V14.01,2013-06-02 19:08:00,
2013-06-02 15:09:00,86.5,66.2,29.64,SE,139,8.0,19.0,51,0.00,,---,0.00,VWS V14.01,2013-06-02 19:09:00,
2013-06-02 15:10:00,86.5,66.8,29.64,ESE,120,11.0,19.0,52,0.00,,---,0.00,VWS V14.01,2013-06-02 19:10:00,
2013-06-02 15:14:00,86.7,65.9,29.64,SW,225,16.0,19.0,50,0.00,,---,0.00,VWS V14.01,2013-06-02 19:14:00,
2013-06-02 15:15:00,86.8,66.5,29.64,NW,311,7.0,19.0,51,0.00,,---,0.00,VWS V14.01,2013-06-02 19:15:00,
2013-06-02 15:16:00,86.9,66.6,29.64,WSW,249,14.0,20.0,51,0.00,,---,0.00,VWS V14.01,2013-06-02 19:16:00,
2013-06-02 15:17:00,86.8,66.5,29.64,South,170,18.0,20.0,51,0.00,,---,0.00,VWS V14.01,2013-06-02 19:17:00,
2013-06-02 15:19:00,86.8,65.9,29.63,SSW,194,13.0,23.0,50,0.00,,---,0.00,VWS V14.01,2013-06-02 19:19:00,
2013-06-02 15:21:00,86.8,66.5,29.63,NE,44,10.0,23.0,51,0.00,,---,0.00,VWS V14.01,2013-06-02 19:21:00,
2013-06-02 15:22:00,86.7,66.4,29.63,SSE,150,9.0,23.0,51,0.00,,---,0.00,VWS V14.01,2013-06-02 19:22:00,
2013-06-02 15:24:00,86.2,66.5,29.63,South,172,11.0,23.0,52,0.00,,---,0.00,VWS V14.01,2013-06-02 19:24:00,
2013-06-02 15:25:00,86.1,67.0,29.63,South,176,10.0,23.0,53,0.00,,---,0.00,VWS V14.01,2013-06-02 19:25:00,
2013-06-02 15:26:00,86.0,66.3,29.63,ENE,67,8.0,23.0,52,0.00,,---,0.00,VWS V14.01,2013-06-02 19:26:00,
2013-06-02 15:27:00,86.0,66.3,29.63,East,91,11.0,23.0,52,0.00,,---,0.00,VWS V14.01,2013-06-02 19:27:00,
2013-06-02 15:28:00,86.2,66.0,29.63,SSE,153,19.0,19.0,51,0.00,,---,0.00,VWS V14.01,2013-06-02 19:28:00,
2013-06-02 15:31:00,86.6,65.8,29.62,SSW,200,8.0,20.0,50,0.00,,---,0.00,VWS V14.01,2013-06-02 19:31:00,
2013-06-02 15:32:00,86.7,66.4,29.62,East,89,14.0,20.0,51,0.00,,---,0.00,VWS V14.01,2013-06-02 19:32:00,
2013-06-02 15:33:00,86.6,66.3,29.62,SE,143,8.0,20.0,51,0.00,,---,0.00,VWS V14.01,2013-06-02 19:33:00,
2013-06-02 15:34:00,86.5,66.2,29.62,SW,235,11.0,20.0,51,0.00,,---,0.00,VWS V14.01,2013-06-02 19:34:00,
2013-06-02 15:36:00,86.6,65.8,29.62,South,185,16.0,20.0,50,0.00,,---,0.00,VWS V14.01,2013-06-02 19:36:00,
2013-06-02 15:37:00,86.6,66.3,29.62,SW,229,16.0,20.0,51,0.00,,---,0.00,VWS V14.01,2013-06-02 19:37:00,
2013-06-02 15:38:00,86.6,66.3,29.62,SSE,155,24.0,25.0,51,0.00,,---,0.00,VWS V14.01,2013-06-02 19:38:00,
2013-06-02 15:39:00,86.9,66.0,29.63,SW,229,22.0,25.0,50,0.00,,---,0.00,VWS V14.01,2013-06-02 19:39:00,
2013-06-02 15:41:00,86.9,66.6,29.62,WSW,242,14.0,25.0,51,0.00,,---,0.00,VWS V14.01,2013-06-02 19:41:00,
2013-06-02 15:42:00,86.8,65.4,29.62,South,172,12.0,25.0,49,0.00,,---,0.00,VWS V14.01,2013-06-02 19:42:00,
2013-06-02 15:43:00,86.8,65.4,29.62,SSE,156,11.0,25.0,49,0.00,,---,0.00,VWS V14.01,2013-06-02 19:43:00,
2013-06-02 15:44:00,86.9,66.0,29.63,SE,145,17.0,25.0,50,0.00,,---,0.00,VWS V14.01,2013-06-02 19:44:00,
2013-06-02 15:48:00,86.8,65.9,29.63,SE,135,16.0,25.0,50,0.00,,---,0.00,VWS V14.01,2013-06-02 19:48:00,
2013-06-02 15:49:00,86.7,65.9,29.63,East,101,17.0,25.0,50,0.00,,---,0.00,VWS V14.01,2013-06-02 19:49:00,
2013-06-02 15:50:00,86.7,64.7,29.63,SSW,207,12.0,25.0,48,0.00,,---,0.00,VWS V14.01,2013-06-02 19:50:00,
2013-06-02 15:54:00,87.0,65.0,29.63,WNW,291,10.0,25.0,48,0.00,,---,0.00,VWS V14.01,2013-06-02 19:54:00,
2013-06-02 15:55:00,87.1,65.6,29.63,West,273,10.0,25.0,49,0.00,,---,0.00,VWS V14.01,2013-06-02 19:55:00,
2013-06-02 15:56:00,87.1,65.6,29.63,East,95,10.0,25.0,49,0.00,,---,0.00,VWS V14.01,2013-06-02 19:56:00,
2013-06-02 15:57:00,87.0,65.6,29.63,SSW,194,13.0,25.0,49,0.00,,---,0.00,VWS V14.01,2013-06-02 19:57:00,
2013-06-02 16:00:00,86.9,65.5,29.63,ENE,68,12.0,16.0,49,0.00,,---,0.00,VWS V14.01,2013-06-02 20:00:00,
2013-06-02 16:02:00,86.8,65.9,29.63,SE,133,12.0,23.0,50,0.00,,---,0.00,VWS V14.01,2013-06-02 20:02:00,
2013-06-02 16:05:00,86.6,65.8,29.63,ESE,121,13.0,23.0,50,0.00,,---,0.00,VWS V14.01,2013-06-02 20:05:00,
2013-06-02 16:07:00,86.5,65.1,29.63,SE,131,14.0,23.0,49,0.00,,---,0.00,VWS V14.01,2013-06-02 20:07:00,
2013-06-02 16:08:00,86.5,65.7,29.64,South,176,18.0,23.0,50,0.00,,---,0.00,VWS V14.01,2013-06-02 20:08:00,
2013-06-02 16:09:00,86.5,65.1,29.64,SW,233,12.0,26.0,49,0.00,,---,0.00,VWS V14.01,2013-06-02 20:09:00,
2013-06-02 16:11:00,86.7,64.7,29.64,SE,124,11.0,26.0,48,0.00,,---,0.00,VWS V14.01,2013-06-02 20:11:00,
2013-06-02 16:12:00,86.7,65.3,29.64,SSE,153,14.0,26.0,49,0.00,,---,0.00,VWS V14.01,2013-06-02 20:12:00,
2013-06-02 16:13:00,86.7,65.3,29.65,SW,228,16.0,26.0,49,0.00,,---,0.00,VWS V14.01,2013-06-02 20:13:00,
2013-06-02 16:14:00,86.6,65.2,29.65,SW,227,23.0,26.0,49,0.00,,---,0.00,VWS V14.01,2013-06-02 20:14:00,
2013-06-02 16:15:00,86.4,65.0,29.65,SW,214,15.0,26.0,49,0.00,,---,0.00,VWS V14.01,2013-06-02 20:15:00,
2013-06-02 16:17:00,85.8,64.4,29.67,West,280,12.0,26.0,49,0.00,,---,0.00,VWS V14.01,2013-06-02 20:17:00,
2013-06-02 16:18:00,84.6,63.9,29.67,NW,305,14.0,26.0,50,0.00,,---,0.00,VWS V14.01,2013-06-02 20:18:00,
2013-06-02 16:19:00,84.1,63.5,29.67,West,276,17.0,26.0,50,0.00,,---,0.00,VWS V14.01,2013-06-02 20:19:00,
2013-06-02 16:20:00,83.0,63.6,29.67,West,259,10.0,26.0,52,0.00,,---,0.00,VWS V14.01,2013-06-02 20:20:00,
2013-06-02 16:24:00,80.9,64.2,29.67,NNW,332,16.0,26.0,57,0.00,,---,0.00,VWS V14.01,2013-06-02 20:24:00,
2013-06-02 16:25:00,80.6,64.5,29.67,WNW,302,12.0,26.0,58,0.00,,---,0.00,VWS V14.01,2013-06-02 20:25:00,
2013-06-02 16:26:00,80.2,64.6,29.68,NW,316,18.0,26.0,59,0.00,,---,0.00,VWS V14.01,2013-06-02 20:26:00,
2013-06-02 16:29:00,78.5,64.9,29.69,North,357,10.0,17.0,63,0.00,,---,0.00,VWS V14.01,2013-06-02 20:29:00,
2013-06-02 16:30:00,78.1,64.5,29.70,North,359,8.0,17.0,63,0.00,,---,0.00,VWS V14.01,2013-06-02 20:30:00,
2013-06-02 16:32:00,77.3,65.1,29.70,NW,326,7.0,17.0,66,0.00,,---,0.00,VWS V14.01,2013-06-02 20:32:00,
2013-06-02 16:34:00,76.4,64.6,29.70,NW,319,10.0,17.0,67,0.00,,---,0.00,VWS V14.01,2013-06-02 20:34:00,
2013-06-02 16:35:00,76.1,65.2,29.70,NW,315,7.0,17.0,69,0.00,,---,0.00,VWS V14.01,2013-06-02 20:35:00,
2013-06-02 16:36:00,75.8,64.9,29.70,WNW,293,8.0,17.0,69,0.00,,---,0.00,VWS V14.01,2013-06-02 20:36:00,
2013-06-02 16:37:00,75.6,65.1,29.70,West,278,10.0,17.0,70,0.00,,---,0.00,VWS V14.01,2013-06-02 20:37:00,
2013-06-02 16:38:00,75.3,65.3,29.70,North,4,5.0,17.0,71,0.00,,---,0.00,VWS V14.01,2013-06-02 20:38:00,
2013-06-02 16:39:00,75.1,65.1,29.70,NNE,13,6.0,17.0,71,0.00,,---,0.00,VWS V14.01,2013-06-02 20:39:00,
2013-06-02 16:41:00,74.8,65.2,29.70,NNW,330,5.0,17.0,72,0.00,,---,0.00,VWS V14.01,2013-06-02 20:41:00,
2013-06-02 16:43:00,74.5,65.3,29.70,NNW,343,10.0,17.0,73,0.00,,---,0.00,VWS V14.01,2013-06-02 20:43:00,
2013-06-02 16:44:00,74.4,65.2,29.70,North,11,6.0,17.0,73,0.00,,---,0.00,VWS V14.01,2013-06-02 20:44:00,
2013-06-02 16:46:00,74.0,65.2,29.70,NNW,340,5.0,17.0,74,0.00,,---,0.00,VWS V14.01,2013-06-02 20:46:00,
2013-06-02 16:49:00,73.8,65.4,29.70,NW,304,7.0,17.0,75,0.00,,---,0.00,VWS V14.01,2013-06-02 20:49:00,
2013-06-02 16:51:00,73.5,65.5,29.71,WSW,254,7.0,17.0,76,0.00,,---,0.00,VWS V14.01,2013-06-02 20:51:00,
2013-06-02 16:54:00,73.2,65.6,29.71,North,353,3.0,17.0,77,0.00,,---,0.00,VWS V14.01,2013-06-02 20:54:00,
2013-06-02 16:55:00,73.0,65.4,29.71,West,270,2.0,17.0,77,0.00,,---,0.00,VWS V14.01,2013-06-02 20:55:00,
2013-06-02 16:56:00,72.9,65.7,29.71,WSW,252,5.0,17.0,78,0.00,,---,0.00,VWS V14.01,2013-06-02 20:56:00,
2013-06-02 17:00:00,72.5,65.6,29.72,NW,307,4.0,12.0,79,0.00,,---,0.00,VWS V14.01,2013-06-02 21:00:00,
2013-06-02 17:01:00,72.3,65.8,29.73,WSW,246,4.0,12.0,80,0.00,,---,0.00,VWS V14.01,2013-06-02 21:01:00,
2013-06-02 17:02:00,72.2,65.7,29.73,NW,312,8.0,12.0,80,0.00,,---,0.00,VWS V14.01,2013-06-02 21:02:00,
2013-06-02 17:05:00,72.0,65.9,29.74,WNW,283,9.0,12.0,81,0.00,,---,0.00,VWS V14.01,2013-06-02 21:05:00,
2013-06-02 17:06:00,71.8,66.0,29.74,WNW,300,2.0,12.0,82,0.00,,---,0.00,VWS V14.01,2013-06-02 21:06:00,
2013-06-02 17:08:00,71.7,65.9,29.75,SW,225,6.0,12.0,82,0.00,,---,0.00,VWS V14.01,2013-06-02 21:08:00,
2013-06-02 17:11:00,71.5,66.1,29.73,NNW,342,1.0,12.0,83,0.04,,---,0.04,VWS V14.01,2013-06-02 21:11:00,
2013-06-02 17:13:00,71.4,66.3,29.72,WNW,296,2.0,12.0,84,0.06,,---,0.06,VWS V14.01,2013-06-02 21:13:00,
2013-06-02 17:16:00,70.9,66.2,29.71,NNW,333,2.0,12.0,85,0.07,,---,0.07,VWS V14.01,2013-06-02 21:16:00,
2013-06-02 17:18:00,70.7,66.3,29.71,NNW,335,4.0,12.0,86,0.07,,---,0.07,VWS V14.01,2013-06-02 21:18:00,
2013-06-02 17:19:00,70.5,66.1,29.70,WNW,300,4.0,12.0,86,0.07,,---,0.07,VWS V14.01,2013-06-02 21:19:00,
2013-06-02 17:22:00,70.3,66.6,29.71,WNW,300,3.0,12.0,88,0.07,,---,0.07,VWS V14.01,2013-06-02 21:22:00,
2013-06-02 17:23:00,70.2,66.5,29.71,SW,235,1.0,12.0,88,0.07,,---,0.07,VWS V14.01,2013-06-02 21:23:00,
2013-06-02 17:24:00,70.1,66.4,29.71,East,101,0.0,12.0,88,0.07,,---,0.07,VWS V14.01,2013-06-02 21:24:00,
2013-06-02 17:27:00,70.0,66.3,29.71,NNW,347,0.0,12.0,88,0.07,,---,0.07,VWS V14.01,2013-06-02 21:27:00,
2013-06-02 17:29:00,70.0,66.3,29.71,West,270,2.0,2.0,88,0.07,,---,0.07,VWS V14.01,2013-06-02 21:29:00,
2013-06-02 17:30:00,70.0,66.3,29.71,WSW,244,1.0,2.0,88,0.07,,---,0.07,VWS V14.01,2013-06-02 21:30:00,
2013-06-02 17:31:00,69.9,66.2,29.71,ESE,106,1.0,2.0,88,0.07,,---,0.07,VWS V14.01,2013-06-02 21:31:00,
2013-06-02 17:33:00,69.8,66.1,29.70,SW,221,2.0,4.0,88,0.07,,---,0.07,VWS V14.01,2013-06-02 21:33:00,
2013-06-02 17:34:00,69.7,66.0,29.70,West,261,3.0,5.0,88,0.07,,---,0.07,VWS V14.01,2013-06-02 21:34:00,
2013-06-02 17:35:00,69.7,66.0,29.71,WSW,255,6.0,6.0,88,0.07,,---,0.07,VWS V14.01,2013-06-02 21:35:00,
2013-06-02 17:36:00,69.7,66.3,29.72,WNW,295,3.0,6.0,89,0.07,,---,0.07,VWS V14.01,2013-06-02 21:36:00,
2013-06-02 17:39:00,69.5,66.1,29.73,WNW,297,3.0,6.0,89,0.07,,---,0.07,VWS V14.01,2013-06-02 21:39:00,
2013-06-02 17:40:00,69.5,66.1,29.73,SW,236,4.0,6.0,89,0.07,,---,0.07,VWS V14.01,2013-06-02 21:40:00,
2013-06-02 17:41:00,69.4,66.0,29.73,West,272,2.0,7.0,89,0.07,,---,0.07,VWS V14.01,2013-06-02 21:41:00,
2013-06-02 17:45:00,69.2,66.2,29.73,NNW,333,3.0,7.0,90,0.07,,---,0.07,VWS V14.01,2013-06-02 21:45:00,
2013-06-02 17:46:00,69.2,66.2,29.73,NW,323,3.0,7.0,90,0.07,,---,0.07,VWS V14.01,2013-06-02 21:46:00,
2013-06-02 17:47:00,69.1,66.1,29.72,NNW,337,7.0,7.0,90,0.07,,---,0.07,VWS V14.01,2013-06-02 21:47:00,
2013-06-02 17:50:00,68.9,66.2,29.74,West,274,2.0,7.0,91,0.07,,---,0.07,VWS V14.01,2013-06-02 21:50:00,
2013-06-02 17:51:00,68.8,66.1,29.74,West,280,2.0,7.0,91,0.07,,---,0.07,VWS V14.01,2013-06-02 21:51:00,
2013-06-02 17:52:00,68.8,66.1,29.74,West,266,2.0,7.0,91,0.07,,---,0.07,VWS V14.01,2013-06-02 21:52:00,
2013-06-02 17:53:00,68.8,66.1,29.74,NW,311,3.0,7.0,91,0.07,,---,0.07,VWS V14.01,2013-06-02 21:53:00,
2013-06-02 17:55:00,68.7,66.0,29.75,NNW,343,8.0,8.0,91,0.09,,---,0.09,VWS V14.01,2013-06-02 21:55:00,
2013-06-02 17:57:00,68.6,65.9,29.76,WSW,242,10.0,10.0,91,0.10,,---,0.10,VWS V14.01,2013-06-02 21:57:00,
2013-06-02 17:58:00,68.6,65.9,29.77,WSW,246,11.0,11.0,91,0.11,,---,0.11,VWS V14.01,2013-06-02 21:58:00,
2013-06-02 17:59:00,68.5,66.1,29.78,ESE,109,11.0,19.0,92,0.17,,---,0.17,VWS V14.01,2013-06-02 21:59:00,
2013-06-02 18:00:00,68.3,65.6,29.78,ESE,113,10.0,19.0,91,0.29,,---,0.29,VWS V14.01,2013-06-02 22:00:00,
2013-06-02 18:03:00,67.6,64.2,29.74,WNW,300,3.0,19.0,89,0.37,,---,0.37,VWS V14.01,2013-06-02 22:03:00,
2013-06-02 18:05:00,67.3,64.3,29.74,WSW,245,0.0,19.0,90,0.39,,---,0.39,VWS V14.01,2013-06-02 22:05:00,
2013-06-02 18:06:00,67.2,64.5,29.74,SW,236,0.0,19.0,91,0.40,,---,0.40,VWS V14.01,2013-06-02 22:06:00,
2013-06-02 18:07:00,67.2,64.5,29.74,SE,125,2.0,19.0,91,0.40,,---,0.40,VWS V14.01,2013-06-02 22:07:00,
2013-06-02 18:08:00,67.1,64.7,29.74,SE,136,0.0,19.0,92,0.41,,---,0.41,VWS V14.01,2013-06-02 22:08:00,
2013-06-02 18:10:00,67.1,64.7,29.74,South,173,1.0,19.0,92,0.41,,---,0.41,VWS V14.01,2013-06-02 22:10:00,
2013-06-02 18:11:00,67.1,65.0,29.75,SSE,151,1.0,19.0,93,0.41,,---,0.41,VWS V14.01,2013-06-02 22:11:00,
2013-06-02 18:12:00,67.1,65.0,29.75,East,94,2.0,19.0,93,0.41,,---,0.41,VWS V14.01,2013-06-02 22:12:00,
2013-06-02 18:13:00,67.2,65.1,29.75,SSE,153,1.0,19.0,93,0.42,,---,0.42,VWS V14.01,2013-06-02 22:13:00,
2013-06-02 18:14:00,67.2,65.4,29.75,SE,134,3.0,19.0,94,0.42,,---,0.42,VWS V14.01,2013-06-02 22:14:00,
2013-06-02 18:15:00,67.3,65.5,29.75,SSE,150,3.0,19.0,94,0.42,,---,0.42,VWS V14.01,2013-06-02 22:15:00,
2013-06-02 18:16:00,67.3,65.5,29.75,SSE,156,1.0,19.0,94,0.43,,---,0.43,VWS V14.01,2013-06-02 22:16:00,
2013-06-02 18:18:00,67.4,65.6,29.75,SE,142,3.0,19.0,94,0.44,,---,0.44,VWS V14.01,2013-06-02 22:18:00,
2013-06-02 18:20:00,67.4,65.6,29.74,WSW,256,2.0,19.0,94,0.44,,---,0.44,VWS V14.01,2013-06-02 22:20:00,
2013-06-02 18:21:00,67.5,65.7,29.74,SSE,160,1.0,19.0,94,0.45,,---,0.45,VWS V14.01,2013-06-02 22:21:00,
2013-06-02 18:24:00,67.5,65.7,29.74,SSW,208,1.0,19.0,94,0.47,,---,0.47,VWS V14.01,2013-06-02 22:24:00,
2013-06-02 18:25:00,67.5,65.7,29.74,SW,215,3.0,19.0,94,0.47,,---,0.47,VWS V14.01,2013-06-02 22:25:00,
2013-06-02 18:26:00,67.5,65.7,29.74,SE,146,1.0,19.0,94,0.47,,---,0.47,VWS V14.01,2013-06-02 22:26:00,
2013-06-02 18:27:00,67.5,65.7,29.74,SE,143,2.0,19.0,94,0.47,,---,0.47,VWS V14.01,2013-06-02 22:27:00,
2013-06-02 18:29:00,67.5,65.7,29.74,East,89,5.0,5.0,94,0.40,,---,0.47,VWS V14.01,2013-06-02 22:29:00,
2013-06-02 18:30:00,67.5,65.7,29.74,SSE,166,3.0,7.0,94,0.40,,---,0.47,VWS V14.01,2013-06-02 22:30:00,
2013-06-02 18:31:00,67.5,65.7,29.74,SSE,163,3.0,7.0,94,0.40,,---,0.47,VWS V14.01,2013-06-02 22:31:00,
2013-06-02 18:32:00,67.5,65.7,29.74,SSE,150,5.0,7.0,94,0.40,,---,0.47,VWS V14.01,2013-06-02 22:32:00,
2013-06-02 18:34:00,67.6,65.8,29.74,ESE,113,8.0,8.0,94,0.40,,---,0.47,VWS V14.01,2013-06-02 22:34:00,
2013-06-02 18:35:00,67.6,65.8,29.74,East,93,6.0,8.0,94,0.41,,---,0.48,VWS V14.01,2013-06-02 22:35:00,
2013-06-02 18:36:00,67.7,65.9,29.74,SE,131,5.0,8.0,94,0.41,,---,0.48,VWS V14.01,2013-06-02 22:36:00,
2013-06-02 18:38:00,67.7,65.9,29.73,SSE,160,4.0,8.0,94,0.41,,---,0.48,VWS V14.01,2013-06-02 22:38:00,
2013-06-02 18:39:00,67.7,65.9,29.73,SSE,152,3.0,8.0,94,0.41,,---,0.48,VWS V14.01,2013-06-02 22:39:00,
2013-06-02 18:41:00,67.7,65.9,29.73,SE,127,1.0,8.0,94,0.41,,---,0.48,VWS V14.01,2013-06-02 22:41:00,
2013-06-02 18:42:00,67.8,66.0,29.73,SE,143,2.0,8.0,94,0.41,,---,0.48,VWS V14.01,2013-06-02 22:42:00,
2013-06-02 18:43:00,67.8,66.0,29.73,East,93,2.0,8.0,94,0.41,,---,0.48,VWS V14.01,2013-06-02 22:43:00,
2013-06-02 18:44:00,67.8,66.0,29.72,SW,231,0.0,8.0,94,0.41,,---,0.48,VWS V14.01,2013-06-02 22:44:00,
2013-06-02 18:46:00,67.8,66.0,29.73,WSW,245,1.0,8.0,94,0.41,,---,0.48,VWS V14.01,2013-06-02 22:46:00,
2013-06-02 18:47:00,67.8,66.0,29.72,SSW,208,0.0,8.0,94,0.41,,---,0.48,VWS V14.01,2013-06-02 22:47:00,
2013-06-02 18:49:00,67.8,66.0,29.72,WSW,250,2.0,8.0,94,0.41,,---,0.48,VWS V14.01,2013-06-02 22:49:00,
2013-06-02 18:50:00,67.8,66.0,29.72,WSW,255,2.0,8.0,94,0.41,,---,0.48,VWS V14.01,2013-06-02 22:50:00,
2013-06-02 18:51:00,67.8,66.0,29.72,West,271,0.0,8.0,94,0.41,,---,0.48,VWS V14.01,2013-06-02 22:51:00,
2013-06-02 18:53:00,67.7,65.9,29.72,WNW,285,1.0,8.0,94,0.41,,---,0.48,VWS V14.01,2013-06-02 22:53:00,
2013-06-02 18:55:00,67.7,65.9,29.72,WNW,285,0.0,8.0,94,0.41,,---,0.48,VWS V14.01,2013-06-02 22:55:00,
2013-06-02 18:56:00,67.7,65.9,29.72,West,274,1.0,8.0,94,0.41,,---,0.48,VWS V14.01,2013-06-02 22:56:00,
2013-06-02 18:58:00,67.7,65.9,29.72,West,276,0.0,0.0,94,0.36,,---,0.48,VWS V14.01,2013-06-02 22:58:00,
2013-06-02 19:00:00,67.7,65.9,29.72,WSW,238,1.0,1.0,94,0.36,,---,0.48,VWS V14.01,2013-06-02 23:00:00,
2013-06-02 19:01:00,67.7,65.9,29.72,WSW,238,1.0,1.0,94,0.36,,---,0.48,VWS V14.01,2013-06-02 23:01:00,
2013-06-02 19:04:00,67.7,65.9,29.72,West,267,0.0,2.0,94,0.37,,---,0.49,VWS V14.01,2013-06-02 23:04:00,
2013-06-02 19:05:00,67.8,66.0,29.72,WSW,255,1.0,2.0,94,0.37,,---,0.49,VWS V14.01,2013-06-02 23:05:00,
2013-06-02 19:06:00,67.8,66.0,29.72,WSW,255,1.0,2.0,94,0.37,,---,0.49,VWS V14.01,2013-06-02 23:06:00,
2013-06-02 19:07:00,67.8,66.0,29.72,West,269,1.0,2.0,94,0.37,,---,0.49,VWS V14.01,2013-06-02 23:07:00,
2013-06-02 19:08:00,67.8,66.0,29.72,West,267,0.0,2.0,94,0.37,,---,0.49,VWS V14.01,2013-06-02 23:08:00,
2013-06-02 19:09:00,67.9,66.1,29.73,West,269,0.0,2.0,94,0.37,,---,0.49,VWS V14.01,2013-06-02 23:09:00,
2013-06-02 19:10:00,67.9,66.1,29.73,West,269,0.0,2.0,94,0.37,,---,0.49,VWS V14.01,2013-06-02 23:10:00,
2013-06-02 19:11:00,67.9,66.1,29.73,West,269,1.0,2.0,94,0.37,,---,0.49,VWS V14.01,2013-06-02 23:11:00,
2013-06-02 19:12:00,67.9,66.1,29.73,West,269,1.0,2.0,94,0.37,,---,0.49,VWS V14.01,2013-06-02 23:12:00,
2013-06-02 19:13:00,68.0,66.2,29.73,WSW,255,1.0,2.0,94,0.37,,---,0.49,VWS V14.01,2013-06-02 23:13:00,
2013-06-02 19:15:00,68.0,66.2,29.73,WSW,242,1.0,2.0,94,0.37,,---,0.49,VWS V14.01,2013-06-02 23:15:00,
2013-06-02 19:16:00,68.0,66.2,29.73,SSW,211,0.0,2.0,94,0.37,,---,0.49,VWS V14.01,2013-06-02 23:16:00,
2013-06-02 19:17:00,68.0,66.2,29.73,SW,224,1.0,2.0,94,0.37,,---,0.49,VWS V14.01,2013-06-02 23:17:00,
2013-06-02 19:18:00,68.1,66.3,29.73,West,271,0.0,2.0,94,0.37,,---,0.49,VWS V14.01,2013-06-02 23:18:00,
2013-06-02 19:19:00,68.1,66.3,29.72,West,269,0.0,2.0,94,0.37,,---,0.49,VWS V14.01,2013-06-02 23:19:00,
2013-06-02 19:21:00,68.1,66.0,29.72,West,280,1.0,2.0,93,0.37,,---,0.49,VWS V14.01,2013-06-02 23:21:00,
2013-06-02 19:22:00,68.1,66.0,29.72,West,281,0.0,2.0,93,0.37,,---,0.49,VWS V14.01,2013-06-02 23:22:00,
2013-06-02 19:23:00,68.1,66.0,29.72,West,281,0.0,2.0,93,0.37,,---,0.49,VWS V14.01,2013-06-02 23:23:00,
2013-06-02 19:24:00,68.1,66.0,29.72,West,281,0.0,2.0,93,0.37,,---,0.49,VWS V14.01,2013-06-02 23:24:00,
2013-06-02 19:26:00,68.1,66.0,29.72,West,281,0.0,2.0,93,0.37,,---,0.49,VWS V14.01,2013-06-02 23:26:00,
2013-06-02 19:27:00,68.1,66.0,29.72,West,281,0.0,2.0,93,0.37,,---,0.49,VWS V14.01,2013-06-02 23:27:00,
2013-06-02 19:29:00,68.1,66.0,29.72,West,281,0.0,0.0,93,0.02,,---,0.49,VWS V14.01,2013-06-02 23:29:00,
2013-06-02 19:30:00,68.1,66.0,29.72,West,281,0.0,0.0,93,0.02,,---,0.49,VWS V14.01,2013-06-02 23:30:00,
2013-06-02 19:31:00,68.1,66.0,29.72,West,281,0.0,0.0,93,0.02,,---,0.49,VWS V14.01,2013-06-02 23:31:00,
2013-06-02 19:32:00,68.1,66.0,29.72,West,281,0.0,0.0,93,0.02,,---,0.49,VWS V14.01,2013-06-02 23:32:00,
2013-06-02 19:34:00,68.1,66.0,29.73,SSW,208,0.0,0.0,93,0.02,,---,0.49,VWS V14.01,2013-06-02 23:34:00,
2013-06-02 19:35:00,68.1,66.0,29.73,SSW,210,0.0,0.0,93,0.02,,---,0.49,VWS V14.01,2013-06-02 23:35:00,
2013-06-02 19:36:00,68.1,66.0,29.73,SSW,210,0.0,0.0,93,0.02,,---,0.49,VWS V14.01,2013-06-02 23:36:00,
2013-06-02 19:38:00,68.1,66.3,29.73,South,183,1.0,1.0,94,0.02,,---,0.49,VWS V14.01,2013-06-02 23:38:00,
2013-06-02 19:39:00,68.1,66.0,29.73,SE,140,0.0,2.0,93,0.02,,---,0.49,VWS V14.01,2013-06-02 23:39:00,
2013-06-02 19:40:00,68.1,66.0,29.73,SE,134,2.0,2.0,93,0.02,,---,0.49,VWS V14.01,2013-06-02 23:40:00,
2013-06-02 19:41:00,68.1,66.3,29.73,SE,139,3.0,4.0,94,0.02,,---,0.49,VWS V14.01,2013-06-02 23:41:00,
2013-06-02 19:43:00,68.3,66.5,29.73,ESE,122,4.0,5.0,94,0.02,,---,0.49,VWS V14.01,2013-06-02 23:43:00,
2013-06-02 19:44:00,68.3,66.5,29.74,East,84,5.0,5.0,94,0.02,,---,0.49,VWS V14.01,2013-06-02 23:44:00,
2013-06-02 19:46:00,68.4,66.6,29.74,SE,132,4.0,5.0,94,0.02,,---,0.49,VWS V14.01,2013-06-02 23:46:00,
2013-06-02 19:47:00,68.4,66.6,29.74,South,188,4.0,7.0,94,0.02,,---,0.49,VWS V14.01,2013-06-02 23:47:00,
2013-06-02 19:49:00,68.3,66.2,29.75,SSE,156,6.0,9.0,93,0.03,,---,0.50,VWS V14.01,2013-06-02 23:49:00,
2013-06-02 19:50:00,68.3,66.2,29.75,ESE,118,7.0,9.0,93,0.03,,---,0.50,VWS V14.01,2013-06-02 23:50:00,
2013-06-02 19:51:00,68.4,66.3,29.75,ESE,106,7.0,9.0,93,0.03,,---,0.50,VWS V14.01,2013-06-02 23:51:00,
2013-06-02 19:52:00,68.4,66.3,29.75,ESE,112,5.0,9.0,93,0.03,,---,0.50,VWS V14.01,2013-06-02 23:52:00,
2013-06-02 19:53:00,68.4,66.3,29.75,South,187,6.0,9.0,93,0.03,,---,0.50,VWS V14.01,2013-06-02 23:53:00,
2013-06-02 19:55:00,68.5,66.4,29.75,SE,141,9.0,10.0,93,0.03,,---,0.50,VWS V14.01,2013-06-02 23:55:00,
2013-06-02 19:56:00,68.5,66.4,29.75,SE,143,9.0,10.0,93,0.04,,---,0.51,VWS V14.01,2013-06-02 23:56:00,
2013-06-02 19:58:00,68.5,66.1,29.74,ESE,106,7.0,10.0,92,0.04,,---,0.51,VWS V14.01,2013-06-02 23:58:00,
2013-06-02 20:01:00,68.6,66.2,29.74,SE,146,6.0,7.0,92,0.03,,---,0.51,VWS V14.01,2013-06-03 00:01:00,
2013-06-02 20:03:00,68.7,66.0,29.74,East,100,4.0,7.0,91,0.03,,---,0.51,VWS V14.01,2013-06-03 00:03:00,
2013-06-02 20:04:00,68.7,66.0,29.74,SSE,158,6.0,8.0,91,0.03,,---,0.51,VWS V14.01,2013-06-03 00:04:00,
2013-06-02 20:05:00,68.7,66.0,29.74,ESE,108,8.0,8.0,91,0.04,,---,0.52,VWS V14.01,2013-06-03 00:05:00,
2013-06-02 20:06:00,68.7,66.0,29.74,SE,126,9.0,9.0,91,0.04,,---,0.52,VWS V14.01,2013-06-03 00:06:00,
2013-06-02 20:08:00,68.7,66.0,29.73,East,96,11.0,13.0,91,0.04,,---,0.52,VWS V14.01,2013-06-03 00:08:00,
2013-06-02 20:10:00,68.7,66.0,29.73,East,91,9.0,13.0,91,0.05,,---,0.53,VWS V14.01,2013-06-03 00:10:00,
2013-06-02 20:11:00,68.7,66.0,29.74,ESE,120,5.0,13.0,91,0.05,,---,0.53,VWS V14.01,2013-06-03 00:11:00,
2013-06-02 20:13:00,68.8,66.1,29.74,ESE,107,6.0,13.0,91,0.06,,---,0.54,VWS V14.01,2013-06-03 00:13:00,
2013-06-02 20:14:00,68.7,66.0,29.74,ESE,105,4.0,13.0,91,0.06,,---,0.54,VWS V14.01,2013-06-03 00:14:00,
2013-06-02 20:15:00,68.8,65.8,29.73,East,99,6.0,13.0,90,0.06,,---,0.54,VWS V14.01,2013-06-03 00:15:00,
2013-06-02 20:16:00,68.8,65.8,29.73,ESE,105,7.0,13.0,90,0.06,,---,0.54,VWS V14.01,2013-06-03 00:16:00,
2013-06-02 20:19:00,68.7,65.7,29.73,SE,125,8.0,13.0,90,0.07,,---,0.55,VWS V14.01,2013-06-03 00:19:00,
2013-06-02 20:20:00,68.7,65.7,29.73,SE,131,8.0,13.0,90,0.07,,---,0.55,VWS V14.01,2013-06-03 00:20:00,
2013-06-02 20:21:00,68.8,65.8,29.73,SE,139,7.0,13.0,90,0.07,,---,0.55,VWS V14.01,2013-06-03 00:21:00,
2013-06-02 20:22:00,68.7,65.7,29.73,SE,135,7.0,13.0,90,0.07,,---,0.55,VWS V14.01,2013-06-03 00:22:00,
2013-06-02 20:23:00,68.8,65.8,29.73,SE,141,9.0,13.0,90,0.07,,---,0.55,VWS V14.01,2013-06-03 00:23:00,
2013-06-02 20:24:00,68.8,65.8,29.73,SSE,156,9.0,13.0,90,0.07,,---,0.55,VWS V14.01,2013-06-03 00:24:00,
2013-06-02 20:25:00,68.8,65.8,29.73,SE,131,10.0,13.0,90,0.07,,---,0.55,VWS V14.01,2013-06-03 00:25:00,
2013-06-02 20:26:00,68.9,65.8,29.73,SE,128,9.0,13.0,90,0.07,,---,0.55,VWS V14.01,2013-06-03 00:26:00,
2013-06-02 20:27:00,68.9,65.8,29.73,SE,143,12.0,13.0,90,0.07,,---,0.55,VWS V14.01,2013-06-03 00:27:00,
2013-06-02 20:30:00,68.9,65.8,29.73,SSW,208,8.0,12.0,90,0.06,,---,0.55,VWS V14.01,2013-06-03 00:30:00,
2013-06-02 20:31:00,68.9,65.8,29.73,East,80,5.0,12.0,90,0.06,,---,0.55,VWS V14.01,2013-06-03 00:31:00,
2013-06-02 20:32:00,68.9,65.8,29.73,SSW,197,9.0,12.0,90,0.06,,---,0.55,VWS V14.01,2013-06-03 00:32:00,
2013-06-02 20:35:00,68.9,65.8,29.73,East,99,5.0,12.0,90,0.06,,---,0.55,VWS V14.01,2013-06-03 00:35:00,
2013-06-02 20:36:00,68.9,65.8,29.73,WSW,244,6.0,12.0,90,0.06,,---,0.55,VWS V14.01,2013-06-03 00:36:00,
2013-06-02 20:37:00,68.9,65.8,29.73,WSW,240,10.0,12.0,90,0.06,,---,0.55,VWS V14.01,2013-06-03 00:37:00,
2013-06-02 20:38:00,68.8,65.8,29.73,SE,136,4.0,12.0,90,0.06,,---,0.55,VWS V14.01,2013-06-03 00:38:00,
2013-06-02 20:40:00,68.8,65.8,29.73,ESE,120,3.0,12.0,90,0.06,,---,0.55,VWS V14.01,2013-06-03 00:40:00,
2013-06-02 20:41:00,68.8,65.8,29.73,SSW,212,4.0,12.0,90,0.06,,---,0.55,VWS V14.01,2013-06-03 00:41:00,
2013-06-02 20:43:00,68.8,65.8,29.73,WSW,250,8.0,12.0,90,0.06,,---,0.55,VWS V14.01,2013-06-03 00:43:00,
2013-06-02 20:44:00,68.8,65.8,29.73,SE,134,10.0,13.0,90,0.06,,---,0.55,VWS V14.01,2013-06-03 00:44:00,
2013-06-02 20:45:00,68.8,65.8,29.73,ESE,108,8.0,13.0,90,0.06,,---,0.55,VWS V14.01,2013-06-03 00:45:00,
2013-06-02 20:46:00,68.9,65.8,29.73,SSE,165,9.0,13.0,90,0.06,,---,0.55,VWS V14.01,2013-06-03 00:46:00,
2013-06-02 20:49:00,68.9,65.8,29.73,South,189,5.0,13.0,90,0.06,,---,0.55,VWS V14.01,2013-06-03 00:49:00,
2013-06-02 20:50:00,68.8,65.8,29.73,ESE,104,4.0,13.0,90,0.06,,---,0.55,VWS V14.01,2013-06-03 00:50:00,
2013-06-02 20:51:00,68.8,65.8,29.74,North,349,3.0,13.0,90,0.06,,---,0.55,VWS V14.01,2013-06-03 00:51:00,
2013-06-02 20:54:00,68.7,65.7,29.74,WNW,302,5.0,13.0,90,0.06,,---,0.55,VWS V14.01,2013-06-03 00:54:00,
2013-06-02 20:55:00,68.7,65.7,29.74,ENE,75,5.0,13.0,90,0.06,,---,0.55,VWS V14.01,2013-06-03 00:55:00,
2013-06-02 20:56:00,68.7,65.7,29.74,NW,304,4.0,13.0,90,0.06,,---,0.55,VWS V14.01,2013-06-03 00:56:00,
2013-06-02 20:57:00,68.7,66.0,29.74,ESE,108,6.0,13.0,91,0.06,,---,0.55,VWS V14.01,2013-06-03 00:57:00,
2013-06-02 21:00:00,68.6,65.6,29.74,SW,231,4.0,11.0,90,0.04,,---,0.55,VWS V14.01,2013-06-03 01:00:00,
2013-06-02 21:01:00,68.6,65.6,29.74,SSW,194,7.0,11.0,90,0.04,,---,0.55,VWS V14.01,2013-06-03 01:01:00,
2013-06-02 21:02:00,68.6,65.9,29.74,SE,132,4.0,11.0,91,0.04,,---,0.55,VWS V14.01,2013-06-03 01:02:00,
2013-06-02 21:03:00,68.6,65.9,29.74,SSE,151,3.0,11.0,91,0.04,,---,0.55,VWS V14.01,2013-06-03 01:03:00,
2013-06-02 21:05:00,68.6,65.9,29.74,SW,236,6.0,11.0,91,0.04,,---,0.55,VWS V14.01,2013-06-03 01:05:00,
2013-06-02 21:06:00,68.5,65.8,29.74,SSW,195,3.0,11.0,91,0.04,,---,0.55,VWS V14.01,2013-06-03 01:06:00,
2013-06-02 21:07:00,68.5,65.8,29.74,South,186,6.0,11.0,91,0.04,,---,0.55,VWS V14.01,2013-06-03 01:07:00,
2013-06-02 21:08:00,68.5,65.8,29.74,SSE,159,9.0,12.0,91,0.04,,---,0.55,VWS V14.01,2013-06-03 01:08:00,
2013-06-02 21:11:00,68.4,65.7,29.75,SSE,160,6.0,12.0,91,0.04,,---,0.55,VWS V14.01,2013-06-03 01:11:00,
2013-06-02 21:12:00,68.4,65.7,29.74,SSE,166,5.0,12.0,91,0.04,,---,0.55,VWS V14.01,2013-06-03 01:12:00,
2013-06-02 21:13:00,68.4,65.7,29.74,SE,130,6.0,12.0,91,0.04,,---,0.55,VWS V14.01,2013-06-03 01:13:00,
2013-06-02 21:14:00,68.3,65.6,29.74,SSE,156,4.0,12.0,91,0.04,,---,0.55,VWS V14.01,2013-06-03 01:14:00,
2013-06-02 21:16:00,68.3,65.9,29.74,East,89,3.0,12.0,92,0.04,,---,0.55,VWS V14.01,2013-06-03 01:16:00,
2013-06-02 21:17:00,68.3,65.9,29.75,SSW,210,2.0,12.0,92,0.04,,---,0.55,VWS V14.01,2013-06-03 01:17:00,
2013-06-02 21:18:00,68.3,65.9,29.74,SE,131,2.0,12.0,92,0.04,,---,0.55,VWS V14.01,2013-06-03 01:18:00,
2013-06-02 21:19:00,68.3,65.9,29.74,SSW,200,1.0,12.0,92,0.04,,---,0.55,VWS V14.01,2013-06-03 01:19:00,
2013-06-02 21:20:00,68.3,65.9,29.74,South,169,0.0,12.0,92,0.04,,---,0.55,VWS V14.01,2013-06-03 01:20:00,
2013-06-02 21:21:00,68.3,65.9,29.74,South,176,3.0,12.0,92,0.04,,---,0.55,VWS V14.01,2013-06-03 01:21:00,
2013-06-02 21:23:00,68.2,65.8,29.74,SSE,150,2.0,12.0,92,0.04,,---,0.55,VWS V14.01,2013-06-03 01:23:00,
2013-06-02 21:24:00,68.2,65.8,29.74,SE,135,3.0,12.0,92,0.04,,---,0.55,VWS V14.01,2013-06-03 01:24:00,
2013-06-02 21:26:00,68.1,65.7,29.74,SSW,203,1.0,12.0,92,0.04,,---,0.55,VWS V14.01,2013-06-03 01:26:00,
2013-06-02 21:28:00,68.1,65.7,29.74,SSW,212,2.0,12.0,92,0.04,,---,0.55,VWS V14.01,2013-06-03 01:28:00,
2013-06-02 21:29:00,68.1,65.7,29.75,West,261,0.0,0.0,92,0.00,,---,0.55,VWS V14.01,2013-06-03 01:29:00,
2013-06-02 21:31:00,68.1,65.7,29.75,SSW,198,0.0,0.0,92,0.00,,---,0.55,VWS V14.01,2013-06-03 01:31:00,
2013-06-02 21:33:00,68.0,65.6,29.75,SE,143,0.0,0.0,92,0.00,,---,0.55,VWS V14.01,2013-06-03 01:33:00,
2013-06-02 21:34:00,68.0,65.6,29.75,SE,143,0.0,0.0,92,0.00,,---,0.55,VWS V14.01,2013-06-03 01:34:00,
2013-06-02 21:35:00,68.0,65.6,29.75,SE,143,0.0,0.0,92,0.00,,---,0.55,VWS V14.01,2013-06-03 01:35:00,
2013-06-02 21:37:00,67.9,65.5,29.75,SE,143,0.0,0.0,92,0.00,,---,0.55,VWS V14.01,2013-06-03 01:37:00,
2013-06-02 21:39:00,67.9,65.5,29.75,SE,143,0.0,0.0,92,0.00,,---,0.55,VWS V14.01,2013-06-03 01:39:00,
2013-06-02 21:42:00,67.7,65.6,29.75,SE,142,1.0,2.0,93,0.00,,---,0.55,VWS V14.01,2013-06-03 01:42:00,
2013-06-02 21:45:00,67.6,65.5,29.75,SW,224,2.0,4.0,93,0.00,,---,0.55,VWS V14.01,2013-06-03 01:45:00,
2013-06-02 21:47:00,67.5,65.4,29.75,SW,223,2.0,4.0,93,0.00,,---,0.55,VWS V14.01,2013-06-03 01:47:00,
2013-06-02 21:48:00,67.4,65.3,29.75,SW,224,2.0,4.0,93,0.00,,---,0.55,VWS V14.01,2013-06-03 01:48:00,
2013-06-02 21:50:00,67.3,65.5,29.75,SW,221,1.0,4.0,94,0.00,,---,0.55,VWS V14.01,2013-06-03 01:50:00,
2013-06-02 21:51:00,67.3,65.5,29.75,SW,222,1.0,4.0,94,0.00,,---,0.55,VWS V14.01,2013-06-03 01:51:00,
2013-06-02 21:52:00,67.3,65.5,29.75,SW,221,1.0,4.0,94,0.00,,---,0.55,VWS V14.01,2013-06-03 01:52:00,
2013-06-02 21:53:00,67.2,65.4,29.75,SW,221,1.0,4.0,94,0.00,,---,0.55,VWS V14.01,2013-06-03 01:53:00,
2013-06-02 21:54:00,67.2,65.4,29.75,SW,221,1.0,4.0,94,0.00,,---,0.55,VWS V14.01,2013-06-03 01:54:00,
2013-06-02 21:56:00,67.1,65.3,29.75,SW,221,1.0,4.0,94,0.00,,---,0.55,VWS V14.01,2013-06-03 01:56:00,
2013-06-02 21:57:00,67.1,65.3,29.75,SW,221,1.0,4.0,94,0.00,,---,0.55,VWS V14.01,2013-06-03 01:57:00,
2013-06-02 21:58:00,67.1,65.3,29.75,SW,221,2.0,4.0,94,0.00,,---,0.55,VWS V14.01,2013-06-03 01:58:00,
2013-06-02 22:00:00,67.1,65.3,29.75,SW,221,2.0,2.0,94,0.00,,---,0.55,VWS V14.01,2013-06-03 02:00:00,
2013-06-02 22:01:00,67.1,65.3,29.75,SW,221,2.0,2.0,94,0.00,,---,0.55,VWS V14.01,2013-06-03 02:01:00,
2013-06-02 22:03:00,67.0,65.2,29.75,SW,221,1.0,2.0,94,0.00,,---,0.55,VWS V14.01,2013-06-03 02:03:00,
2013-06-02 22:04:00,67.0,65.2,29.75,SW,221,2.0,2.0,94,0.00,,---,0.55,VWS V14.01,2013-06-03 02:04:00,
2013-06-02 22:05:00,67.0,65.2,29.75,SW,221,2.0,2.0,94,0.00,,---,0.55,VWS V14.01,2013-06-03 02:05:00,
2013-06-02 22:06:00,66.9,65.1,29.75,SW,223,2.0,3.0,94,0.00,,---,0.55,VWS V14.01,2013-06-03 02:06:00,
2013-06-02 22:09:00,66.8,65.0,29.75,South,176,0.0,3.0,94,0.00,,---,0.55,VWS V14.01,2013-06-03 02:09:00,
2013-06-02 22:11:00,66.8,65.0,29.75,South,176,0.0,3.0,94,0.00,,---,0.55,VWS V14.01,2013-06-03 02:11:00,
2013-06-02 22:12:00,66.7,64.9,29.75,South,176,0.0,3.0,94,0.00,,---,0.55,VWS V14.01,2013-06-03 02:12:00,
2013-06-02 22:14:00,66.7,64.9,29.75,South,176,0.0,3.0,94,0.00,,---,0.55,VWS V14.01,2013-06-03 02:14:00,
2013-06-02 22:15:00,66.6,64.8,29.75,South,176,0.0,3.0,94,0.00,,---,0.55,VWS V14.01,2013-06-03 02:15:00,
2013-06-02 22:16:00,66.6,64.8,29.75,South,176,0.0,3.0,94,0.00,,---,0.55,VWS V14.01,2013-06-03 02:16:00,
2013-06-02 22:18:00,66.6,65.1,29.75,South,176,0.0,3.0,95,0.00,,---,0.55,VWS V14.01,2013-06-03 02:18:00,
2013-06-02 22:19:00,66.6,65.1,29.75,South,176,0.0,3.0,95,0.00,,---,0.55,VWS V14.01,2013-06-03 02:19:00,
2013-06-02 22:20:00,66.5,65.0,29.75,South,176,0.0,3.0,95,0.00,,---,0.55,VWS V14.01,2013-06-03 02:20:00,
2013-06-02 22:21:00,66.5,65.0,29.75,South,176,0.0,3.0,95,0.00,,---,0.55,VWS V14.01,2013-06-03 02:21:00,
2013-06-02 22:23:00,66.4,64.9,29.75,South,176,0.0,3.0,95,0.00,,---,0.55,VWS V14.01,2013-06-03 02:23:00,
2013-06-02 22:25:00,66.4,64.9,29.75,South,176,0.0,3.0,95,0.00,,---,0.55,VWS V14.01,2013-06-03 02:25:00,
2013-06-02 22:26:00,66.4,64.9,29.75,South,176,0.0,3.0,95,0.00,,---,0.55,VWS V14.01,2013-06-03 02:26:00,
2013-06-02 22:27:00,66.4,64.9,29.75,South,176,0.0,3.0,95,0.00,,---,0.55,VWS V14.01,2013-06-03 02:27:00,
2013-06-02 22:29:00,66.3,64.8,29.75,South,176,0.0,0.0,95,0.00,,---,0.55,VWS V14.01,2013-06-03 02:29:00,
2013-06-02 22:30:00,66.3,64.8,29.75,South,176,0.0,0.0,95,0.00,,---,0.55,VWS V14.01,2013-06-03 02:30:00,
2013-06-02 22:31:00,66.3,64.8,29.75,South,176,0.0,0.0,95,0.00,,---,0.55,VWS V14.01,2013-06-03 02:31:00,
2013-06-02 22:33:00,66.2,64.7,29.75,South,176,0.0,0.0,95,0.00,,---,0.55,VWS V14.01,2013-06-03 02:33:00,
2013-06-02 22:35:00,66.2,64.7,29.75,South,176,0.0,0.0,95,0.00,,---,0.55,VWS V14.01,2013-06-03 02:35:00,
2013-06-02 22:37:00,66.2,64.7,29.75,South,176,0.0,0.0,95,0.00,,---,0.55,VWS V14.01,2013-06-03 02:37:00,
2013-06-02 22:39:00,66.1,64.6,29.75,South,176,0.0,0.0,95,0.00,,---,0.55,VWS V14.01,2013-06-03 02:39:00,
2013-06-02 22:42:00,66.1,64.6,29.75,South,176,0.0,0.0,95,0.00,,---,0.55,VWS V14.01,2013-06-03 02:42:00,
2013-06-02 22:43:00,66.1,64.6,29.75,South,176,0.0,0.0,95,0.00,,---,0.55,VWS V14.01,2013-06-03 02:43:00,
2013-06-02 22:44:00,66.1,64.9,29.75,South,187,0.0,0.0,96,0.00,,---,0.55,VWS V14.01,2013-06-03 02:44:00,
2013-06-02 22:45:00,66.1,64.9,29.75,South,187,0.0,0.0,96,0.00,,---,0.55,VWS V14.01,2013-06-03 02:45:00,
2013-06-02 22:47:00,66.0,64.8,29.75,South,187,0.0,0.0,96,0.00,,---,0.55,VWS V14.01,2013-06-03 02:47:00,
2013-06-02 22:48:00,66.0,64.8,29.75,South,187,0.0,0.0,96,0.00,,---,0.55,VWS V14.01,2013-06-03 02:48:00,
2013-06-02 22:49:00,66.0,64.8,29.75,South,187,0.0,0.0,96,0.00,,---,0.55,VWS V14.01,2013-06-03 02:49:00,
2013-06-02 22:50:00,66.0,64.8,29.75,South,187,0.0,0.0,96,0.00,,---,0.55,VWS V14.01,2013-06-03 02:50:00,
2013-06-02 22:51:00,66.0,64.8,29.76,South,187,0.0,0.0,96,0.00,,---,0.55,VWS V14.01,2013-06-03 02:51:00,
2013-06-02 22:52:00,66.0,64.8,29.75,South,187,0.0,0.0,96,0.00,,---,0.55,VWS V14.01,2013-06-03 02:52:00,
2013-06-02 22:53:00,65.9,64.7,29.75,South,187,0.0,0.0,96,0.00,,---,0.55,VWS V14.01,2013-06-03 02:53:00,
2013-06-02 22:55:00,65.9,64.7,29.75,South,187,0.0,0.0,96,0.00,,---,0.55,VWS V14.01,2013-06-03 02:55:00,
2013-06-02 22:56:00,65.9,64.7,29.75,South,187,0.0,0.0,96,0.00,,---,0.55,VWS V14.01,2013-06-03 02:56:00,
2013-06-02 22:58:00,66.0,64.8,29.76,South,187,0.0,0.0,96,0.00,,---,0.55,VWS V14.01,2013-06-03 02:58:00,
2013-06-02 23:00:00,66.0,64.8,29.76,South,189,0.0,0.0,96,0.00,,---,0.55,VWS V14.01,2013-06-03 03:00:00,
2013-06-02 23:01:00,66.0,64.8,29.76,SW,217,2.0,2.0,96,0.00,,---,0.55,VWS V14.01,2013-06-03 03:01:00,
2013-06-02 23:02:00,67.1,65.6,29.77,SW,226,0.0,1.0,95,0.00,,---,0.55,VWS V14.01,2013-06-03 03:02:00,
2013-06-02 23:03:00,66.0,64.8,29.76,SW,219,2.0,2.0,96,0.00,,---,0.55,VWS V14.01,2013-06-03 03:03:00,
2013-06-02 23:04:00,67.0,65.5,29.77,WSW,238,2.0,2.0,95,0.00,,---,0.55,VWS V14.01,2013-06-03 03:04:00,
2013-06-02 23:05:00,66.2,65.0,29.77,SW,221,1.0,3.0,96,0.00,,---,0.55,VWS V14.01,2013-06-03 03:05:00,
2013-06-02 23:06:00,67.0,65.8,29.77,West,263,2.0,3.0,96,0.00,,---,0.55,VWS V14.01,2013-06-03 03:06:00,
2013-06-02 23:07:00,66.3,65.4,29.77,WNW,297,3.0,7.0,97,0.00,,---,0.55,VWS V14.01,2013-06-03 03:07:00,
2013-06-02 23:08:00,66.3,65.4,29.77,North,3,4.0,7.0,97,0.00,,---,0.55,VWS V14.01,2013-06-03 03:08:00,
2013-06-02 23:09:00,66.9,65.7,29.77,WSW,255,1.0,3.0,96,0.00,,---,0.55,VWS V14.01,2013-06-03 03:09:00,
2013-06-02 23:10:00,66.5,65.6,29.77,WNW,295,7.0,8.0,97,0.00,,---,0.55,VWS V14.01,2013-06-03 03:10:00,
2013-06-02 23:11:00,66.5,65.6,29.77,North,360,5.0,8.0,97,0.00,,---,0.55,VWS V14.01,2013-06-03 03:11:00,
2013-06-02 23:12:00,66.7,65.8,29.77,NW,316,1.0,8.0,97,0.00,,---,0.55,VWS V14.01,2013-06-03 03:12:00,
2013-06-02 23:13:00,66.7,65.8,29.77,NNW,334,2.0,8.0,97,0.00,,---,0.55,VWS V14.01,2013-06-03 03:13:00,
2013-06-02 23:14:00,66.8,65.6,29.77,SW,229,3.0,3.0,96,0.00,,---,0.55,VWS V14.01,2013-06-03 03:14:00,
2013-06-02 23:15:00,66.8,65.9,29.77,NW,315,2.0,8.0,97,0.00,,---,0.55,VWS V14.01,2013-06-03 03:15:00,
2013-06-02 23:16:00,66.9,65.7,29.77,WNW,283,2.0,8.0,96,0.00,,---,0.55,VWS V14.01,2013-06-03 03:16:00,
2013-06-02 23:17:00,66.7,65.5,29.77,WSW,250,1.0,3.0,96,0.00,,---,0.55,VWS V14.01,2013-06-03 03:17:00,
2013-06-02 23:18:00,67.0,65.8,29.76,WNW,288,2.0,8.0,96,0.00,,---,0.55,VWS V14.01,2013-06-03 03:18:00,
2013-06-02 23:19:00,67.0,65.8,29.76,NNW,329,4.0,8.0,96,0.00,,---,0.55,VWS V14.01,2013-06-03 03:19:00,
2013-06-02 23:20:00,67.1,65.9,29.76,NW,322,0.0,8.0,96,0.00,,---,0.55,VWS V14.01,2013-06-03 03:20:00,
2013-06-02 23:21:00,66.7,65.5,29.77,WSW,252,0.0,3.0,96,0.00,,---,0.55,VWS V14.01,2013-06-03 03:21:00,
2013-06-02 23:22:00,67.1,65.9,29.76,WNW,295,1.0,8.0,96,0.00,,---,0.55,VWS V14.01,2013-06-03 03:22:00,
2013-06-02 23:23:00,67.1,65.9,29.76,NW,304,0.0,8.0,96,0.00,,---,0.55,VWS V14.01,2013-06-03 03:23:00,
2013-06-02 23:24:00,67.1,65.9,29.76,NW,304,0.0,8.0,96,0.00,,---,0.55,VWS V14.01,2013-06-03 03:24:00,
2013-06-02 23:25:00,66.7,65.5,29.77,SW,226,0.0,3.0,96,0.00,,---,0.55,VWS V14.01,2013-06-03 03:25:00,
2013-06-02 23:26:00,66.7,65.5,29.76,SW,226,0.0,3.0,96,0.00,,---,0.55,VWS V14.01,2013-06-03 03:26:00,
2013-06-02 23:27:00,67.2,66.0,29.77,WSW,244,1.0,8.0,96,0.00,,---,0.55,VWS V14.01,2013-06-03 03:27:00,
2013-06-02 23:29:00,67.2,66.0,29.77,SW,215,1.0,2.0,96,0.00,,---,0.55,VWS V14.01,2013-06-03 03:29:00,
2013-06-02 23:30:00,67.2,66.0,29.77,SSW,211,2.0,4.0,96,0.00,,---,0.55,VWS V14.01,2013-06-03 03:30:00,
2013-06-02 23:33:00,67.3,65.8,29.76,SW,225,1.0,4.0,95,0.00,,---,0.55,VWS V14.01,2013-06-03 03:33:00,
2013-06-02 23:34:00,67.3,65.8,29.76,SW,235,0.0,4.0,95,0.00,,---,0.55,VWS V14.01,2013-06-03 03:34:00,
2013-06-02 23:35:00,67.3,65.8,29.76,SW,233,1.0,4.0,95,0.00,,---,0.55,VWS V14.01,2013-06-03 03:35:00,
2013-06-02 23:36:00,67.4,65.9,29.76,SW,233,0.0,4.0,95,0.00,,---,0.55,VWS V14.01,2013-06-03 03:36:00,
2013-06-02 23:39:00,67.5,66.0,29.77,South,174,0.0,4.0,95,0.00,,---,0.55,VWS V14.01,2013-06-03 03:39:00,
2013-06-02 23:40:00,67.5,66.0,29.77,SE,140,0.0,4.0,95,0.00,,---,0.55,VWS V14.01,2013-06-03 03:40:00,
2013-06-02 23:41:00,67.5,66.0,29.77,SW,219,3.0,4.0,95,0.00,,---,0.55,VWS V14.01,2013-06-03 03:41:00,
2013-06-02 23:43:00,67.5,66.0,29.77,SW,221,1.0,4.0,95,0.00,,---,0.55,VWS V14.01,2013-06-03 03:43:00,
2013-06-02 23:45:00,67.5,66.0,29.76,SE,143,1.0,4.0,95,0.00,,---,0.55,VWS V14.01,2013-06-03 03:45:00,
2013-06-02 23:46:00,67.4,65.9,29.76,SE,143,1.0,4.0,95,0.00,,---,0.55,VWS V14.01,2013-06-03 03:46:00,
2013-06-02 23:47:00,67.5,66.0,29.76,SE,143,1.0,4.0,95,0.00,,---,0.55,VWS V14.01,2013-06-03 03:47:00,
2013-06-02 23:48:00,67.4,65.9,29.76,SE,143,0.0,4.0,95,0.00,,---,0.55,VWS V14.01,2013-06-03 03:48:00,
2013-06-02 23:50:00,67.5,66.0,29.76,SE,143,1.0,4.0,95,0.00,,---,0.55,VWS V14.01,2013-06-03 03:50:00,
2013-06-02 23:51:00,67.4,65.9,29.76,SE,143,0.0,4.0,95,0.00,,---,0.55,VWS V14.01,2013-06-03 03:51:00,
2013-06-02 23:53:00,67.3,65.8,29.76,SE,143,0.0,4.0,95,0.00,,---,0.55,VWS V14.01,2013-06-03 03:53:00,
2013-06-02 23:54:00,67.3,65.8,29.77,SE,143,0.0,4.0,95,0.00,,---,0.55,VWS V14.01,2013-06-03 03:54:00,
2013-06-02 23:55:00,67.3,65.8,29.77,SE,143,0.0,4.0,95,0.00,,---,0.55,VWS V14.01,2013-06-03 03:55:00,
2013-06-02 23:56:00,67.2,65.7,29.77,WSW,240,0.0,4.0,95,0.00,,---,0.55,VWS V14.01,2013-06-03 03:56:00,
2013-06-02 23:57:00,67.2,65.7,29.77,WSW,240,0.0,4.0,95,0.00,,---,0.55,VWS V14.01,2013-06-03 03:57:00,
2013-06-02 23:59:00,67.1,65.6,29.77,WSW,239,0.0,0.0,95,0.00,,---,0.55,VWS V14.01,2013-06-03 03:59:00,